<?xml version="1.0" encoding="UTF-8" standalone="no" ?>
<gpx xmlns="http://www.topografix.com/GPX/1/1" xmlns:xsi="http://www.w3.org/2001/XMLSchema-instance" xsi:schemaLocation="http://www.topografix.com/GPX/1/1 http://www.topografix.com/GPX/1/1/gpx.xsd" version="1.1" creator="VisuGPX - https://www.visugpx.com">
  <metadata>
    <name>SC 1305 60km</name>
  </metadata>
  <trk>
    <name><![CDATA[SC 1305 60km]]></name>
    <trkseg>
      <trkpt lat="50.50364" lon="3.46059">
        <ele>19.569234</ele>
        <time>2021-05-09T17:07:13.482Z</time>
      </trkpt>
      <trkpt lat="50.5041" lon="3.45851">
        <ele>19.454898</ele>
        <time>2021-05-09T17:07:33.761Z</time>
      </trkpt>
      <trkpt lat="50.50424" lon="3.45772">
        <ele>19.335587</ele>
        <time>2021-05-09T17:07:41.111Z</time>
      </trkpt>
      <trkpt lat="50.50433" lon="3.4572">
        <ele>19.256551</ele>
        <time>2021-05-09T17:07:45.932Z</time>
      </trkpt>
      <trkpt lat="50.50436" lon="3.45642">
        <ele>19.126826</ele>
        <time>2021-05-09T17:07:52.820Z</time>
      </trkpt>
      <trkpt lat="50.50437" lon="3.45631">
        <ele>19.091542</ele>
        <time>2021-05-09T17:07:53.658Z</time>
      </trkpt>
      <trkpt lat="50.5044" lon="3.45588">
        <ele>18.952024</ele>
        <time>2021-05-09T17:07:57.618Z</time>
      </trkpt>
      <trkpt lat="50.50441" lon="3.45573">
        <ele>18.90287</ele>
        <time>2021-05-09T17:07:58.812Z</time>
      </trkpt>
      <trkpt lat="50.50441" lon="3.45568">
        <ele>18.886447</ele>
        <time>2021-05-09T17:07:59.256Z</time>
      </trkpt>
      <trkpt lat="50.50443" lon="3.45552">
        <ele>18.834205</ele>
        <time>2021-05-09T17:08:00.687Z</time>
      </trkpt>
      <trkpt lat="50.50448" lon="3.45508">
        <ele>18.693335</ele>
        <time>2021-05-09T17:08:04.238Z</time>
      </trkpt>
      <trkpt lat="50.50447" lon="3.4549">
        <ele>18.633999</ele>
        <time>2021-05-09T17:08:05.824Z</time>
      </trkpt>
      <trkpt lat="50.50444" lon="3.45482">
        <ele>18.603714</ele>
        <time>2021-05-09T17:08:06.628Z</time>
      </trkpt>
      <trkpt lat="50.50416" lon="3.45464">
        <ele>18.454057</ele>
        <time>2021-05-09T17:08:10.504Z</time>
      </trkpt>
      <trkpt lat="50.50407" lon="3.45459">
        <ele>18.403878</ele>
        <time>2021-05-09T17:08:11.833Z</time>
      </trkpt>
      <trkpt lat="50.50355" lon="3.45425">
        <ele>18.119885</ele>
        <time>2021-05-09T17:08:19.315Z</time>
      </trkpt>
      <trkpt lat="50.50341" lon="3.45413">
        <ele>18.038012</ele>
        <time>2021-05-09T17:08:21.492Z</time>
      </trkpt>
      <trkpt lat="50.5031" lon="3.45386">
        <ele>17.856683</ele>
        <time>2021-05-09T17:08:26.152Z</time>
      </trkpt>
      <trkpt lat="50.50229" lon="3.45322">
        <ele>17.391537</ele>
        <time>2021-05-09T17:08:37.595Z</time>
      </trkpt>
      <trkpt lat="50.50193" lon="3.45294">
        <ele>17.360096</ele>
        <time>2021-05-09T17:08:43.606Z</time>
      </trkpt>
      <trkpt lat="50.50142" lon="3.45258">
        <ele>17.411926</ele>
        <time>2021-05-09T17:08:52.889Z</time>
      </trkpt>
      <trkpt lat="50.5013" lon="3.45249">
        <ele>17.424129</ele>
        <time>2021-05-09T17:08:54.906Z</time>
      </trkpt>
      <trkpt lat="50.50092" lon="3.45227">
        <ele>17.461178</ele>
        <time>2021-05-09T17:09:01.414Z</time>
      </trkpt>
      <trkpt lat="50.50084" lon="3.45223">
        <ele>17.468999</ele>
        <time>2021-05-09T17:09:02.733Z</time>
      </trkpt>
      <trkpt lat="50.50052" lon="3.45203">
        <ele>17.496839</ele>
        <time>2021-05-09T17:09:07.725Z</time>
      </trkpt>
      <trkpt lat="50.50051" lon="3.45202">
        <ele>17.4906</ele>
        <time>2021-05-09T17:09:07.973Z</time>
      </trkpt>
      <trkpt lat="50.50044" lon="3.45199">
        <ele>17.464223</ele>
        <time>2021-05-09T17:09:08.998Z</time>
      </trkpt>
      <trkpt lat="50.50005" lon="3.45189">
        <ele>17.315478</ele>
        <time>2021-05-09T17:09:14.610Z</time>
      </trkpt>
      <trkpt lat="50.49999" lon="3.45188">
        <ele>17.291575</ele>
        <time>2021-05-09T17:09:15.478Z</time>
      </trkpt>
      <trkpt lat="50.49974" lon="3.45177">
        <ele>17.19745</ele>
        <time>2021-05-09T17:09:19.268Z</time>
      </trkpt>
      <trkpt lat="50.49958" lon="3.45159">
        <ele>17.122228</ele>
        <time>2021-05-09T17:09:22.080Z</time>
      </trkpt>
      <trkpt lat="50.49943" lon="3.45125">
        <ele>17.02433</ele>
        <time>2021-05-09T17:09:25.732Z</time>
      </trkpt>
      <trkpt lat="50.49935" lon="3.45106">
        <ele>16.968234</ele>
        <time>2021-05-09T17:09:27.708Z</time>
      </trkpt>
      <trkpt lat="50.49874" lon="3.44964">
        <ele>16.319408</ele>
        <time>2021-05-09T17:09:40.943Z</time>
      </trkpt>
      <trkpt lat="50.49867" lon="3.44946">
        <ele>16.222376</ele>
        <time>2021-05-09T17:09:42.546Z</time>
      </trkpt>
      <trkpt lat="50.49864" lon="3.44939">
        <ele>16.184252</ele>
        <time>2021-05-09T17:09:43.188Z</time>
      </trkpt>
      <trkpt lat="50.49851" lon="3.44909">
        <ele>16.019452</ele>
        <time>2021-05-09T17:09:46.081Z</time>
      </trkpt>
      <trkpt lat="50.49844" lon="3.44889">
        <ele>15.911435</ele>
        <time>2021-05-09T17:09:47.973Z</time>
      </trkpt>
      <trkpt lat="50.49799" lon="3.44762">
        <ele>15.741121</ele>
        <time>2021-05-09T17:10:01.003Z</time>
      </trkpt>
      <trkpt lat="50.49798" lon="3.44759">
        <ele>15.751765</ele>
        <time>2021-05-09T17:10:01.247Z</time>
      </trkpt>
      <trkpt lat="50.49776" lon="3.4469">
        <ele>16.008614</ele>
        <time>2021-05-09T17:10:09.242Z</time>
      </trkpt>
      <trkpt lat="50.49754" lon="3.44626">
        <ele>16.249452</ele>
        <time>2021-05-09T17:10:16.982Z</time>
      </trkpt>
      <trkpt lat="50.49735" lon="3.44569">
        <ele>16.463053</ele>
        <time>2021-05-09T17:10:25.133Z</time>
      </trkpt>
      <trkpt lat="50.49687" lon="3.44433">
        <ele>18.126291</ele>
        <time>2021-05-09T17:10:46.880Z</time>
      </trkpt>
      <trkpt lat="50.49674" lon="3.44405">
        <ele>18.500829</ele>
        <time>2021-05-09T17:10:52.090Z</time>
      </trkpt>
      <trkpt lat="50.49672" lon="3.44401">
        <ele>18.555234</ele>
        <time>2021-05-09T17:10:53.010Z</time>
      </trkpt>
      <trkpt lat="50.49669" lon="3.44396">
        <ele>18.631912</ele>
        <time>2021-05-09T17:10:53.847Z</time>
      </trkpt>
      <trkpt lat="50.49663" lon="3.44393">
        <ele>18.733705</ele>
        <time>2021-05-09T17:10:54.977Z</time>
      </trkpt>
      <trkpt lat="50.49657" lon="3.44381">
        <ele>18.902705</ele>
        <time>2021-05-09T17:10:57.758Z</time>
      </trkpt>
      <trkpt lat="50.49606" lon="3.44327">
        <ele>19.714381</ele>
        <time>2021-05-09T17:11:10.148Z</time>
      </trkpt>
      <trkpt lat="50.49601" lon="3.44316">
        <ele>19.778106</ele>
        <time>2021-05-09T17:11:12.475Z</time>
      </trkpt>
      <trkpt lat="50.496" lon="3.44307">
        <ele>19.822538</ele>
        <time>2021-05-09T17:11:13.565Z</time>
      </trkpt>
      <trkpt lat="50.49602" lon="3.44292">
        <ele>19.897978</ele>
        <time>2021-05-09T17:11:15.267Z</time>
      </trkpt>
      <trkpt lat="50.49617" lon="3.4426">
        <ele>20.090769</ele>
        <time>2021-05-09T17:11:20.654Z</time>
      </trkpt>
      <trkpt lat="50.49629" lon="3.44231">
        <ele>20.259984</ele>
        <time>2021-05-09T17:11:24.467Z</time>
      </trkpt>
      <trkpt lat="50.49645" lon="3.44201">
        <ele>20.450102</ele>
        <time>2021-05-09T17:11:29.220Z</time>
      </trkpt>
      <trkpt lat="50.49648" lon="3.44196">
        <ele>20.485608</ele>
        <time>2021-05-09T17:11:29.837Z</time>
      </trkpt>
      <trkpt lat="50.49685" lon="3.44131">
        <ele>20.91322</ele>
        <time>2021-05-09T17:11:38.177Z</time>
      </trkpt>
      <trkpt lat="50.49705" lon="3.44106">
        <ele>20.800495</ele>
        <time>2021-05-09T17:11:41.483Z</time>
      </trkpt>
      <trkpt lat="50.49744" lon="3.44059">
        <ele>20.584372</ele>
        <time>2021-05-09T17:11:47.757Z</time>
      </trkpt>
      <trkpt lat="50.49763" lon="3.44038">
        <ele>20.481576</ele>
        <time>2021-05-09T17:11:50.755Z</time>
      </trkpt>
      <trkpt lat="50.49781" lon="3.4402">
        <ele>20.388643</ele>
        <time>2021-05-09T17:11:53.583Z</time>
      </trkpt>
      <trkpt lat="50.4985" lon="3.43976">
        <ele>20.116707</ele>
        <time>2021-05-09T17:12:03.679Z</time>
      </trkpt>
      <trkpt lat="50.49875" lon="3.43953">
        <ele>20.102345</ele>
        <time>2021-05-09T17:12:07.960Z</time>
      </trkpt>
      <trkpt lat="50.49908" lon="3.43909">
        <ele>20.081059</ele>
        <time>2021-05-09T17:12:14.132Z</time>
      </trkpt>
      <trkpt lat="50.49932" lon="3.43869">
        <ele>20.063243</ele>
        <time>2021-05-09T17:12:19.479Z</time>
      </trkpt>
      <trkpt lat="50.49959" lon="3.43822">
        <ele>20.043336</ele>
        <time>2021-05-09T17:12:25.433Z</time>
      </trkpt>
      <trkpt lat="50.49968" lon="3.4381">
        <ele>20.03739</ele>
        <time>2021-05-09T17:12:27.393Z</time>
      </trkpt>
      <trkpt lat="50.50021" lon="3.43737">
        <ele>20.063533</ele>
        <time>2021-05-09T17:12:37.886Z</time>
      </trkpt>
      <trkpt lat="50.50051" lon="3.43694">
        <ele>20.082455</ele>
        <time>2021-05-09T17:12:44.239Z</time>
      </trkpt>
      <trkpt lat="50.50074" lon="3.43662">
        <ele>20.096527</ele>
        <time>2021-05-09T17:12:48.919Z</time>
      </trkpt>
      <trkpt lat="50.50098" lon="3.43629">
        <ele>20.11117</ele>
        <time>2021-05-09T17:12:53.441Z</time>
      </trkpt>
      <trkpt lat="50.50185" lon="3.43497">
        <ele>20.106944</ele>
        <time>2021-05-09T17:13:11.488Z</time>
      </trkpt>
      <trkpt lat="50.50325" lon="3.43292">
        <ele>19.821479</ele>
        <time>2021-05-09T17:13:39.830Z</time>
      </trkpt>
      <trkpt lat="50.5036" lon="3.43218">
        <ele>19.685386</ele>
        <time>2021-05-09T17:13:47.457Z</time>
      </trkpt>
      <trkpt lat="50.50361" lon="3.43212">
        <ele>19.661815</ele>
        <time>2021-05-09T17:13:47.971Z</time>
      </trkpt>
      <trkpt lat="50.50363" lon="3.43211">
        <ele>19.648093</ele>
        <time>2021-05-09T17:13:48.207Z</time>
      </trkpt>
      <trkpt lat="50.50366" lon="3.43201">
        <ele>19.595709</ele>
        <time>2021-05-09T17:13:49.104Z</time>
      </trkpt>
      <trkpt lat="50.50365" lon="3.43199">
        <ele>19.581794</ele>
        <time>2021-05-09T17:13:49.341Z</time>
      </trkpt>
      <trkpt lat="50.50369" lon="3.43196">
        <ele>19.555972</ele>
        <time>2021-05-09T17:13:49.753Z</time>
      </trkpt>
      <trkpt lat="50.50376" lon="3.43191">
        <ele>19.490866</ele>
        <time>2021-05-09T17:13:50.862Z</time>
      </trkpt>
      <trkpt lat="50.50385" lon="3.43181">
        <ele>19.406841</ele>
        <time>2021-05-09T17:13:52.232Z</time>
      </trkpt>
      <trkpt lat="50.50406" lon="3.43154">
        <ele>19.203202</ele>
        <time>2021-05-09T17:13:55.583Z</time>
      </trkpt>
      <trkpt lat="50.50469" lon="3.43071">
        <ele>18.575964</ele>
        <time>2021-05-09T17:14:05.637Z</time>
      </trkpt>
      <trkpt lat="50.50517" lon="3.43003">
        <ele>18.351794</ele>
        <time>2021-05-09T17:14:14.148Z</time>
      </trkpt>
      <trkpt lat="50.50523" lon="3.42993">
        <ele>18.366352</ele>
        <time>2021-05-09T17:14:15.245Z</time>
      </trkpt>
      <trkpt lat="50.50529" lon="3.42984">
        <ele>18.379512</ele>
        <time>2021-05-09T17:14:16.402Z</time>
      </trkpt>
      <trkpt lat="50.50538" lon="3.42968">
        <ele>18.401535</ele>
        <time>2021-05-09T17:14:18.599Z</time>
      </trkpt>
      <trkpt lat="50.50633" lon="3.42818">
        <ele>18.677321</ele>
        <time>2021-05-09T17:14:40.902Z</time>
      </trkpt>
      <trkpt lat="50.50652" lon="3.4279">
        <ele>18.826589</ele>
        <time>2021-05-09T17:14:45.800Z</time>
      </trkpt>
      <trkpt lat="50.50684" lon="3.42741">
        <ele>19.083115</ele>
        <time>2021-05-09T17:14:53.887Z</time>
      </trkpt>
      <trkpt lat="50.50893" lon="3.42426">
        <ele>20.535521</ele>
        <time>2021-05-09T17:15:42.137Z</time>
      </trkpt>
      <trkpt lat="50.50931" lon="3.42378">
        <ele>20.79837</ele>
        <time>2021-05-09T17:15:50.510Z</time>
      </trkpt>
      <trkpt lat="50.50984" lon="3.42324">
        <ele>21.137024</ele>
        <time>2021-05-09T17:16:01.083Z</time>
      </trkpt>
      <trkpt lat="50.50987" lon="3.42321">
        <ele>21.156305</ele>
        <time>2021-05-09T17:16:01.777Z</time>
      </trkpt>
      <trkpt lat="50.51002" lon="3.42307">
        <ele>21.245112</ele>
        <time>2021-05-09T17:16:04.521Z</time>
      </trkpt>
      <trkpt lat="50.51021" lon="3.42292">
        <ele>21.360314</ele>
        <time>2021-05-09T17:16:08.253Z</time>
      </trkpt>
      <trkpt lat="50.51021" lon="3.42292">
        <ele>21.360314</ele>
        <time>2021-05-09T17:16:08.285Z</time>
      </trkpt>
      <trkpt lat="50.51025" lon="3.42289">
        <ele>21.38382</ele>
        <time>2021-05-09T17:16:09.035Z</time>
      </trkpt>
      <trkpt lat="50.51038" lon="3.42282">
        <ele>21.476395</ele>
        <time>2021-05-09T17:16:11.321Z</time>
      </trkpt>
      <trkpt lat="50.5105" lon="3.42275">
        <ele>21.573801</ele>
        <time>2021-05-09T17:16:13.588Z</time>
      </trkpt>
      <trkpt lat="50.51046" lon="3.4226">
        <ele>21.651433</ele>
        <time>2021-05-09T17:16:15.915Z</time>
      </trkpt>
      <trkpt lat="50.5106" lon="3.42232">
        <ele>21.826902</ele>
        <time>2021-05-09T17:16:21.112Z</time>
      </trkpt>
      <trkpt lat="50.51068" lon="3.42217">
        <ele>21.92335</ele>
        <time>2021-05-09T17:16:24.093Z</time>
      </trkpt>
      <trkpt lat="50.51129" lon="3.42133">
        <ele>22.550053</ele>
        <time>2021-05-09T17:16:43.055Z</time>
      </trkpt>
      <trkpt lat="50.51218" lon="3.42052">
        <ele>23.471674</ele>
        <time>2021-05-09T17:17:07.425Z</time>
      </trkpt>
      <trkpt lat="50.51309" lon="3.41999">
        <ele>24.409483</ele>
        <time>2021-05-09T17:17:31.105Z</time>
      </trkpt>
      <trkpt lat="50.51384" lon="3.41976">
        <ele>24.976769</ele>
        <time>2021-05-09T17:17:49.734Z</time>
      </trkpt>
      <trkpt lat="50.51422" lon="3.41972">
        <ele>25.246211</ele>
        <time>2021-05-09T17:17:58.784Z</time>
      </trkpt>
      <trkpt lat="50.51437" lon="3.4197">
        <ele>25.347912</ele>
        <time>2021-05-09T17:18:02.156Z</time>
      </trkpt>
      <trkpt lat="50.51465" lon="3.41959">
        <ele>25.550239</ele>
        <time>2021-05-09T17:18:08.645Z</time>
      </trkpt>
      <trkpt lat="50.51481" lon="3.4195">
        <ele>25.672474</ele>
        <time>2021-05-09T17:18:12.530Z</time>
      </trkpt>
      <trkpt lat="50.51487" lon="3.41945">
        <ele>25.714855</ele>
        <time>2021-05-09T17:18:13.909Z</time>
      </trkpt>
      <trkpt lat="50.5151" lon="3.41926">
        <ele>25.753026</ele>
        <time>2021-05-09T17:18:19.554Z</time>
      </trkpt>
      <trkpt lat="50.51713" lon="3.41925">
        <ele>24.975934</ele>
        <time>2021-05-09T17:18:58.048Z</time>
      </trkpt>
      <trkpt lat="50.51727" lon="3.41926">
        <ele>24.862499</ele>
        <time>2021-05-09T17:19:00.413Z</time>
      </trkpt>
      <trkpt lat="50.51736" lon="3.41927">
        <ele>24.784917</ele>
        <time>2021-05-09T17:19:01.953Z</time>
      </trkpt>
      <trkpt lat="50.51872" lon="3.41918">
        <ele>23.759802</ele>
        <time>2021-05-09T17:19:25.502Z</time>
      </trkpt>
      <trkpt lat="50.5188" lon="3.41917">
        <ele>23.74066</ele>
        <time>2021-05-09T17:19:26.883Z</time>
      </trkpt>
      <trkpt lat="50.51886" lon="3.41916">
        <ele>23.726863</ele>
        <time>2021-05-09T17:19:28.006Z</time>
      </trkpt>
      <trkpt lat="50.51906" lon="3.41912">
        <ele>23.681843</ele>
        <time>2021-05-09T17:19:31.601Z</time>
      </trkpt>
      <trkpt lat="50.52017" lon="3.41913">
        <ele>23.425683</ele>
        <time>2021-05-09T17:19:53.372Z</time>
      </trkpt>
      <trkpt lat="50.52048" lon="3.41921">
        <ele>23.546523</ele>
        <time>2021-05-09T17:20:00.335Z</time>
      </trkpt>
      <trkpt lat="50.52079" lon="3.41929">
        <ele>23.885637</ele>
        <time>2021-05-09T17:20:07.934Z</time>
      </trkpt>
      <trkpt lat="50.52093" lon="3.41932">
        <ele>24.038031</ele>
        <time>2021-05-09T17:20:11.212Z</time>
      </trkpt>
      <trkpt lat="50.52105" lon="3.41935">
        <ele>24.169785</ele>
        <time>2021-05-09T17:20:14.618Z</time>
      </trkpt>
      <trkpt lat="50.52169" lon="3.4195">
        <ele>24.876467</ele>
        <time>2021-05-09T17:20:30.769Z</time>
      </trkpt>
      <trkpt lat="50.52246" lon="3.41966">
        <ele>25.73541</ele>
        <time>2021-05-09T17:20:51.135Z</time>
      </trkpt>
      <trkpt lat="50.52273" lon="3.41971">
        <ele>26.039154</ele>
        <time>2021-05-09T17:20:57.875Z</time>
      </trkpt>
      <trkpt lat="50.52365" lon="3.41989">
        <ele>27.080425</ele>
        <time>2021-05-09T17:21:20.789Z</time>
      </trkpt>
      <trkpt lat="50.52437" lon="3.42011">
        <ele>27.635291</ele>
        <time>2021-05-09T17:21:37.816Z</time>
      </trkpt>
      <trkpt lat="50.52521" lon="3.42029">
        <ele>28.111538</ele>
        <time>2021-05-09T17:21:57.059Z</time>
      </trkpt>
      <trkpt lat="50.52597" lon="3.42045">
        <ele>28.380101</ele>
        <time>2021-05-09T17:22:13.631Z</time>
      </trkpt>
      <trkpt lat="50.52752" lon="3.4208">
        <ele>28.41303</ele>
        <time>2021-05-09T17:22:44.794Z</time>
      </trkpt>
      <trkpt lat="50.52836" lon="3.42099">
        <ele>28.366862</ele>
        <time>2021-05-09T17:23:01.691Z</time>
      </trkpt>
      <trkpt lat="50.5289" lon="3.42111">
        <ele>28.336984</ele>
        <time>2021-05-09T17:23:12.895Z</time>
      </trkpt>
      <trkpt lat="50.53254" lon="3.42189">
        <ele>27.314728</ele>
        <time>2021-05-09T17:24:24.638Z</time>
      </trkpt>
      <trkpt lat="50.53265" lon="3.42192">
        <ele>27.267579</ele>
        <time>2021-05-09T17:24:26.459Z</time>
      </trkpt>
      <trkpt lat="50.53268" lon="3.42193">
        <ele>27.254218</ele>
        <time>2021-05-09T17:24:26.827Z</time>
      </trkpt>
      <trkpt lat="50.53342" lon="3.42208">
        <ele>26.204129</ele>
        <time>2021-05-09T17:24:35.522Z</time>
      </trkpt>
      <trkpt lat="50.53478" lon="3.42237">
        <ele>24.062953</ele>
        <time>2021-05-09T17:24:50.785Z</time>
      </trkpt>
      <trkpt lat="50.53576" lon="3.42263">
        <ele>22.743228</ele>
        <time>2021-05-09T17:25:02.207Z</time>
      </trkpt>
      <trkpt lat="50.53725" lon="3.42291">
        <ele>21.273</ele>
        <time>2021-05-09T17:25:21.067Z</time>
      </trkpt>
      <trkpt lat="50.53826" lon="3.42315">
        <ele>20.543096</ele>
        <time>2021-05-09T17:25:34.185Z</time>
      </trkpt>
      <trkpt lat="50.53907" lon="3.42331">
        <ele>20.033252</ele>
        <time>2021-05-09T17:25:45.109Z</time>
      </trkpt>
      <trkpt lat="50.53965" lon="3.42346">
        <ele>19.67173</ele>
        <time>2021-05-09T17:25:52.618Z</time>
      </trkpt>
      <trkpt lat="50.53968" lon="3.42348">
        <ele>19.648822</ele>
        <time>2021-05-09T17:25:53.041Z</time>
      </trkpt>
      <trkpt lat="50.5398" lon="3.423">
        <ele>19.457508</ele>
        <time>2021-05-09T17:25:58.999Z</time>
      </trkpt>
      <trkpt lat="50.53985" lon="3.4228">
        <ele>19.3969</ele>
        <time>2021-05-09T17:26:01.470Z</time>
      </trkpt>
      <trkpt lat="50.53997" lon="3.42265">
        <ele>19.327328</ele>
        <time>2021-05-09T17:26:04.172Z</time>
      </trkpt>
      <trkpt lat="50.54024" lon="3.4224">
        <ele>19.185996</ele>
        <time>2021-05-09T17:26:09.883Z</time>
      </trkpt>
      <trkpt lat="50.54054" lon="3.42229">
        <ele>19.048293</ele>
        <time>2021-05-09T17:26:15.542Z</time>
      </trkpt>
      <trkpt lat="50.54068" lon="3.42229">
        <ele>18.981732</ele>
        <time>2021-05-09T17:26:18.205Z</time>
      </trkpt>
      <trkpt lat="50.54074" lon="3.4223">
        <ele>18.954942</ele>
        <time>2021-05-09T17:26:19.239Z</time>
      </trkpt>
      <trkpt lat="50.54079" lon="3.4223">
        <ele>18.934968</ele>
        <time>2021-05-09T17:26:20.160Z</time>
      </trkpt>
      <trkpt lat="50.54128" lon="3.42236">
        <ele>18.710607</ele>
        <time>2021-05-09T17:26:29.885Z</time>
      </trkpt>
      <trkpt lat="50.54162" lon="3.42227">
        <ele>18.731937</ele>
        <time>2021-05-09T17:26:36.624Z</time>
      </trkpt>
      <trkpt lat="50.54211" lon="3.42191">
        <ele>18.832985</ele>
        <time>2021-05-09T17:26:47.422Z</time>
      </trkpt>
      <trkpt lat="50.5421" lon="3.42175">
        <ele>18.852217</ele>
        <time>2021-05-09T17:26:49.013Z</time>
      </trkpt>
      <trkpt lat="50.54221" lon="3.42162">
        <ele>18.877832</ele>
        <time>2021-05-09T17:26:51.980Z</time>
      </trkpt>
      <trkpt lat="50.54311" lon="3.41984">
        <ele>19.399408</ele>
        <time>2021-05-09T17:27:24.568Z</time>
      </trkpt>
      <trkpt lat="50.5432" lon="3.41974">
        <ele>19.463306</ele>
        <time>2021-05-09T17:27:27.211Z</time>
      </trkpt>
      <trkpt lat="50.54334" lon="3.4196">
        <ele>19.549754</ele>
        <time>2021-05-09T17:27:30.760Z</time>
      </trkpt>
      <trkpt lat="50.54358" lon="3.41944">
        <ele>19.69191</ele>
        <time>2021-05-09T17:27:36.570Z</time>
      </trkpt>
      <trkpt lat="50.54417" lon="3.41925">
        <ele>20.023652</ele>
        <time>2021-05-09T17:27:50.011Z</time>
      </trkpt>
      <trkpt lat="50.54439" lon="3.41907">
        <ele>20.169868</ele>
        <time>2021-05-09T17:27:55.482Z</time>
      </trkpt>
      <trkpt lat="50.54448" lon="3.41892">
        <ele>20.250423</ele>
        <time>2021-05-09T17:27:58.530Z</time>
      </trkpt>
      <trkpt lat="50.54517" lon="3.41725">
        <ele>21.005703</ele>
        <time>2021-05-09T17:28:26.951Z</time>
      </trkpt>
      <trkpt lat="50.5453" lon="3.41694">
        <ele>21.214779</ele>
        <time>2021-05-09T17:28:32.373Z</time>
      </trkpt>
      <trkpt lat="50.5456" lon="3.4153">
        <ele>22.425241</ele>
        <time>2021-05-09T17:28:58.594Z</time>
      </trkpt>
      <trkpt lat="50.54707" lon="3.41187">
        <ele>25.942778</ele>
        <time>2021-05-09T17:30:07.595Z</time>
      </trkpt>
      <trkpt lat="50.54722" lon="3.41157">
        <ele>26.179629</ele>
        <time>2021-05-09T17:30:13.920Z</time>
      </trkpt>
      <trkpt lat="50.5476" lon="3.41105">
        <ele>26.66715</ele>
        <time>2021-05-09T17:30:26.190Z</time>
      </trkpt>
      <trkpt lat="50.54776" lon="3.41089">
        <ele>26.852925</ele>
        <time>2021-05-09T17:30:30.875Z</time>
      </trkpt>
      <trkpt lat="50.54794" lon="3.41076">
        <ele>27.04687</ele>
        <time>2021-05-09T17:30:35.450Z</time>
      </trkpt>
      <trkpt lat="50.54828" lon="3.4106">
        <ele>27.392625</ele>
        <time>2021-05-09T17:30:43.580Z</time>
      </trkpt>
      <trkpt lat="50.54933" lon="3.41026">
        <ele>27.494912</ele>
        <time>2021-05-09T17:31:06.498Z</time>
      </trkpt>
      <trkpt lat="50.54954" lon="3.41019">
        <ele>27.503781</ele>
        <time>2021-05-09T17:31:10.707Z</time>
      </trkpt>
      <trkpt lat="50.55128" lon="3.40966">
        <ele>26.901866</ele>
        <time>2021-05-09T17:31:43.817Z</time>
      </trkpt>
      <trkpt lat="50.55256" lon="3.40915">
        <ele>26.330242</ele>
        <time>2021-05-09T17:32:07.807Z</time>
      </trkpt>
      <trkpt lat="50.55329" lon="3.40904">
        <ele>26.070608</ele>
        <time>2021-05-09T17:32:21.412Z</time>
      </trkpt>
      <trkpt lat="50.55443" lon="3.40868">
        <ele>26.483847</ele>
        <time>2021-05-09T17:32:46.154Z</time>
      </trkpt>
      <trkpt lat="50.55459" lon="3.40859">
        <ele>26.593571</ele>
        <time>2021-05-09T17:32:50.065Z</time>
      </trkpt>
      <trkpt lat="50.5544" lon="3.40777">
        <ele>26.959139</ele>
        <time>2021-05-09T17:33:03.121Z</time>
      </trkpt>
      <trkpt lat="50.55423" lon="3.40684">
        <ele>27.797082</ele>
        <time>2021-05-09T17:33:19.093Z</time>
      </trkpt>
      <trkpt lat="50.55426" lon="3.40567">
        <ele>29.180479</ele>
        <time>2021-05-09T17:33:39.712Z</time>
      </trkpt>
      <trkpt lat="50.55428" lon="3.40534">
        <ele>29.580401</ele>
        <time>2021-05-09T17:33:45.895Z</time>
      </trkpt>
      <trkpt lat="50.55438" lon="3.40459">
        <ele>30.483904</ele>
        <time>2021-05-09T17:33:59.907Z</time>
      </trkpt>
      <trkpt lat="50.55455" lon="3.40384">
        <ele>31.321654</ele>
        <time>2021-05-09T17:34:14.994Z</time>
      </trkpt>
      <trkpt lat="50.55477" lon="3.40283">
        <ele>32.444864</ele>
        <time>2021-05-09T17:34:34.575Z</time>
      </trkpt>
      <trkpt lat="50.55504" lon="3.40212">
        <ele>33.320075</ele>
        <time>2021-05-09T17:34:47.098Z</time>
      </trkpt>
      <trkpt lat="50.55519" lon="3.40171">
        <ele>33.397592</ele>
        <time>2021-05-09T17:34:53.857Z</time>
      </trkpt>
      <trkpt lat="50.55532" lon="3.40141">
        <ele>33.326415</ele>
        <time>2021-05-09T17:34:59.076Z</time>
      </trkpt>
      <trkpt lat="50.55516" lon="3.40116">
        <ele>33.257154</ele>
        <time>2021-05-09T17:35:03.131Z</time>
      </trkpt>
      <trkpt lat="50.55488" lon="3.40095">
        <ele>33.163419</ele>
        <time>2021-05-09T17:35:08.871Z</time>
      </trkpt>
      <trkpt lat="50.55412" lon="3.40037">
        <ele>32.912561</ele>
        <time>2021-05-09T17:35:24.138Z</time>
      </trkpt>
      <trkpt lat="50.55397" lon="3.40037">
        <ele>32.900728</ele>
        <time>2021-05-09T17:35:26.825Z</time>
      </trkpt>
      <trkpt lat="50.55374" lon="3.40058">
        <ele>32.880397</ele>
        <time>2021-05-09T17:35:31.298Z</time>
      </trkpt>
      <trkpt lat="50.55351" lon="3.40034">
        <ele>32.859033</ele>
        <time>2021-05-09T17:35:36.605Z</time>
      </trkpt>
      <trkpt lat="50.55179" lon="3.39874">
        <ele>33.157536</ele>
        <time>2021-05-09T17:36:20.000Z</time>
      </trkpt>
      <trkpt lat="50.55146" lon="3.39843">
        <ele>33.315891</ele>
        <time>2021-05-09T17:36:28.332Z</time>
      </trkpt>
      <trkpt lat="50.55012" lon="3.39719">
        <ele>34.045914</ele>
        <time>2021-05-09T17:37:02.522Z</time>
      </trkpt>
      <trkpt lat="50.55017" lon="3.39699">
        <ele>34.11324</ele>
        <time>2021-05-09T17:37:05.566Z</time>
      </trkpt>
      <trkpt lat="50.55023" lon="3.39677">
        <ele>34.188582</ele>
        <time>2021-05-09T17:37:08.880Z</time>
      </trkpt>
      <trkpt lat="50.55031" lon="3.3965">
        <ele>34.282125</ele>
        <time>2021-05-09T17:37:13.179Z</time>
      </trkpt>
      <trkpt lat="50.55043" lon="3.39618">
        <ele>34.400515</ele>
        <time>2021-05-09T17:37:18.558Z</time>
      </trkpt>
      <trkpt lat="50.55059" lon="3.39587">
        <ele>34.535335</ele>
        <time>2021-05-09T17:37:24.433Z</time>
      </trkpt>
      <trkpt lat="50.55243" lon="3.39295">
        <ele>35.451274</ele>
        <time>2021-05-09T17:38:22.634Z</time>
      </trkpt>
      <trkpt lat="50.55256" lon="3.39262">
        <ele>35.468499</ele>
        <time>2021-05-09T17:38:27.318Z</time>
      </trkpt>
      <trkpt lat="50.553" lon="3.39112">
        <ele>35.37955</ele>
        <time>2021-05-09T17:38:46.931Z</time>
      </trkpt>
      <trkpt lat="50.55307" lon="3.39087">
        <ele>35.341092</ele>
        <time>2021-05-09T17:38:49.943Z</time>
      </trkpt>
      <trkpt lat="50.55318" lon="3.39056">
        <ele>35.290502</ele>
        <time>2021-05-09T17:38:54.400Z</time>
      </trkpt>
      <trkpt lat="50.55319" lon="3.39053">
        <ele>35.285422</ele>
        <time>2021-05-09T17:38:54.681Z</time>
      </trkpt>
      <trkpt lat="50.5532" lon="3.39047">
        <ele>35.275256</ele>
        <time>2021-05-09T17:38:55.234Z</time>
      </trkpt>
      <trkpt lat="50.5532" lon="3.39043">
        <ele>35.270165</ele>
        <time>2021-05-09T17:38:55.516Z</time>
      </trkpt>
      <trkpt lat="50.55326" lon="3.3903">
        <ele>35.247679</ele>
        <time>2021-05-09T17:38:56.932Z</time>
      </trkpt>
      <trkpt lat="50.55337" lon="3.3901">
        <ele>35.209426</ele>
        <time>2021-05-09T17:38:59.457Z</time>
      </trkpt>
      <trkpt lat="50.55339" lon="3.39007">
        <ele>35.202472</ele>
        <time>2021-05-09T17:38:59.854Z</time>
      </trkpt>
      <trkpt lat="50.55343" lon="3.38997">
        <ele>35.185667</ele>
        <time>2021-05-09T17:39:00.811Z</time>
      </trkpt>
      <trkpt lat="50.55355" lon="3.38973">
        <ele>35.142111</ele>
        <time>2021-05-09T17:39:04.941Z</time>
      </trkpt>
      <trkpt lat="50.55367" lon="3.38948">
        <ele>35.098461</ele>
        <time>2021-05-09T17:39:08.765Z</time>
      </trkpt>
      <trkpt lat="50.55461" lon="3.38747">
        <ele>36.089735</ele>
        <time>2021-05-09T17:39:45.323Z</time>
      </trkpt>
      <trkpt lat="50.55594" lon="3.3841">
        <ele>38.693803</ele>
        <time>2021-05-09T17:40:45.532Z</time>
      </trkpt>
      <trkpt lat="50.55624" lon="3.38347">
        <ele>39.502387</ele>
        <time>2021-05-09T17:40:59.086Z</time>
      </trkpt>
      <trkpt lat="50.55646" lon="3.38302">
        <ele>40.091173</ele>
        <time>2021-05-09T17:41:09.309Z</time>
      </trkpt>
      <trkpt lat="50.5568" lon="3.38242">
        <ele>40.957022</ele>
        <time>2021-05-09T17:41:23.600Z</time>
      </trkpt>
      <trkpt lat="50.55719" lon="3.3817">
        <ele>42.277885</ele>
        <time>2021-05-09T17:41:41.321Z</time>
      </trkpt>
      <trkpt lat="50.55736" lon="3.38138">
        <ele>42.850644</ele>
        <time>2021-05-09T17:41:48.944Z</time>
      </trkpt>
      <trkpt lat="50.55777" lon="3.38064">
        <ele>44.211172</ele>
        <time>2021-05-09T17:42:06.275Z</time>
      </trkpt>
      <trkpt lat="50.55812" lon="3.37998">
        <ele>45.61332</ele>
        <time>2021-05-09T17:42:23.290Z</time>
      </trkpt>
      <trkpt lat="50.55866" lon="3.37871">
        <ele>48.340608</ele>
        <time>2021-05-09T17:42:52.835Z</time>
      </trkpt>
      <trkpt lat="50.55869" lon="3.37866">
        <ele>48.466994</ele>
        <time>2021-05-09T17:42:54.653Z</time>
      </trkpt>
      <trkpt lat="50.55873" lon="3.3786">
        <ele>48.628391</ele>
        <time>2021-05-09T17:42:56.892Z</time>
      </trkpt>
      <trkpt lat="50.55896" lon="3.37821">
        <ele>49.577295</ele>
        <time>2021-05-09T17:43:07.784Z</time>
      </trkpt>
      <trkpt lat="50.56126" lon="3.37544">
        <ele>58.887656</ele>
        <time>2021-05-09T17:44:45.467Z</time>
      </trkpt>
      <trkpt lat="50.56192" lon="3.37455">
        <ele>61.377721</ele>
        <time>2021-05-09T17:45:13.082Z</time>
      </trkpt>
      <trkpt lat="50.56221" lon="3.37403">
        <ele>62.016061</ele>
        <time>2021-05-09T17:45:25.266Z</time>
      </trkpt>
      <trkpt lat="50.56239" lon="3.37368">
        <ele>62.425323</ele>
        <time>2021-05-09T17:45:33.047Z</time>
      </trkpt>
      <trkpt lat="50.56222" lon="3.37356">
        <ele>62.697633</ele>
        <time>2021-05-09T17:45:37.588Z</time>
      </trkpt>
      <trkpt lat="50.56213" lon="3.37334">
        <ele>62.942004</ele>
        <time>2021-05-09T17:45:42.110Z</time>
      </trkpt>
      <trkpt lat="50.56206" lon="3.3727">
        <ele>63.543895</ele>
        <time>2021-05-09T17:45:51.896Z</time>
      </trkpt>
      <trkpt lat="50.56187" lon="3.37229">
        <ele>63.8487</ele>
        <time>2021-05-09T17:45:59.226Z</time>
      </trkpt>
      <trkpt lat="50.55917" lon="3.36852">
        <ele>63.633995</ele>
        <time>2021-05-09T17:47:10.872Z</time>
      </trkpt>
      <trkpt lat="50.55908" lon="3.36848">
        <ele>63.632173</ele>
        <time>2021-05-09T17:47:12.523Z</time>
      </trkpt>
      <trkpt lat="50.559" lon="3.36847">
        <ele>63.630478</ele>
        <time>2021-05-09T17:47:14.090Z</time>
      </trkpt>
      <trkpt lat="50.55894" lon="3.36844">
        <ele>63.629185</ele>
        <time>2021-05-09T17:47:15.057Z</time>
      </trkpt>
      <trkpt lat="50.55873" lon="3.36834">
        <ele>63.624703</ele>
        <time>2021-05-09T17:47:19.128Z</time>
      </trkpt>
      <trkpt lat="50.55779" lon="3.36696">
        <ele>63.653023</ele>
        <time>2021-05-09T17:47:45.234Z</time>
      </trkpt>
      <trkpt lat="50.55773" lon="3.36684">
        <ele>63.730777</ele>
        <time>2021-05-09T17:47:47.018Z</time>
      </trkpt>
      <trkpt lat="50.55772" lon="3.36671">
        <ele>63.793874</ele>
        <time>2021-05-09T17:47:50.309Z</time>
      </trkpt>
      <trkpt lat="50.55774" lon="3.36646">
        <ele>63.925216</ele>
        <time>2021-05-09T17:47:53.776Z</time>
      </trkpt>
      <trkpt lat="50.55824" lon="3.36479">
        <ele>64.857654</ele>
        <time>2021-05-09T17:48:21.842Z</time>
      </trkpt>
      <trkpt lat="50.55827" lon="3.36467">
        <ele>64.923079</ele>
        <time>2021-05-09T17:48:25.101Z</time>
      </trkpt>
      <trkpt lat="50.55849" lon="3.36387">
        <ele>64.85061</ele>
        <time>2021-05-09T17:48:37.320Z</time>
      </trkpt>
      <trkpt lat="50.55887" lon="3.36238">
        <ele>64.416658</ele>
        <time>2021-05-09T17:48:56.558Z</time>
      </trkpt>
      <trkpt lat="50.55895" lon="3.3618">
        <ele>64.22341</ele>
        <time>2021-05-09T17:49:02.723Z</time>
      </trkpt>
      <trkpt lat="50.55879" lon="3.35799">
        <ele>59.141963</ele>
        <time>2021-05-09T17:49:40.735Z</time>
      </trkpt>
      <trkpt lat="50.55876" lon="3.35493">
        <ele>54.645737</ele>
        <time>2021-05-09T17:50:10.341Z</time>
      </trkpt>
      <trkpt lat="50.5588" lon="3.35367">
        <ele>52.808685</ele>
        <time>2021-05-09T17:50:22.763Z</time>
      </trkpt>
      <trkpt lat="50.55888" lon="3.35288">
        <ele>51.874546</ele>
        <time>2021-05-09T17:50:30.821Z</time>
      </trkpt>
      <trkpt lat="50.55896" lon="3.35226">
        <ele>51.256004</ele>
        <time>2021-05-09T17:50:37.328Z</time>
      </trkpt>
      <trkpt lat="50.55905" lon="3.35166">
        <ele>50.664425</ele>
        <time>2021-05-09T17:50:43.676Z</time>
      </trkpt>
      <trkpt lat="50.55917" lon="3.35057">
        <ele>49.591971</ele>
        <time>2021-05-09T17:50:55.747Z</time>
      </trkpt>
      <trkpt lat="50.55921" lon="3.35037">
        <ele>49.56345</ele>
        <time>2021-05-09T17:50:57.998Z</time>
      </trkpt>
      <trkpt lat="50.55928" lon="3.35051">
        <ele>49.539668</ele>
        <time>2021-05-09T17:51:00.061Z</time>
      </trkpt>
      <trkpt lat="50.55946" lon="3.35074">
        <ele>49.490652</ele>
        <time>2021-05-09T17:51:04.230Z</time>
      </trkpt>
      <trkpt lat="50.55973" lon="3.35093">
        <ele>49.428395</ele>
        <time>2021-05-09T17:51:09.845Z</time>
      </trkpt>
      <trkpt lat="50.56015" lon="3.35101">
        <ele>49.340588</ele>
        <time>2021-05-09T17:51:18.143Z</time>
      </trkpt>
      <trkpt lat="50.56081" lon="3.35113">
        <ele>49.236063</ele>
        <time>2021-05-09T17:51:32.322Z</time>
      </trkpt>
      <trkpt lat="50.56126" lon="3.35149">
        <ele>49.461248</ele>
        <time>2021-05-09T17:51:43.840Z</time>
      </trkpt>
      <trkpt lat="50.56227" lon="3.35269">
        <ele>49.998338</ele>
        <time>2021-05-09T17:52:12.090Z</time>
      </trkpt>
      <trkpt lat="50.56275" lon="3.35383">
        <ele>49.682906</ele>
        <time>2021-05-09T17:52:30.010Z</time>
      </trkpt>
      <trkpt lat="50.56305" lon="3.3544">
        <ele>49.511916</ele>
        <time>2021-05-09T17:52:38.538Z</time>
      </trkpt>
      <trkpt lat="50.56309" lon="3.35446">
        <ele>49.494905</ele>
        <time>2021-05-09T17:52:39.383Z</time>
      </trkpt>
      <trkpt lat="50.56333" lon="3.35472">
        <ele>49.387373</ele>
        <time>2021-05-09T17:52:44.615Z</time>
      </trkpt>
      <trkpt lat="50.56376" lon="3.35506">
        <ele>48.811825</ele>
        <time>2021-05-09T17:52:52.830Z</time>
      </trkpt>
      <trkpt lat="50.56387" lon="3.35515">
        <ele>48.638015</ele>
        <time>2021-05-09T17:52:55.003Z</time>
      </trkpt>
      <trkpt lat="50.5639" lon="3.35495">
        <ele>48.453694</ele>
        <time>2021-05-09T17:52:57.151Z</time>
      </trkpt>
      <trkpt lat="50.56382" lon="3.35329">
        <ele>47.000706</ele>
        <time>2021-05-09T17:53:14.432Z</time>
      </trkpt>
      <trkpt lat="50.56355" lon="3.35209">
        <ele>46.095254</ele>
        <time>2021-05-09T17:53:27.875Z</time>
      </trkpt>
      <trkpt lat="50.56352" lon="3.35167">
        <ele>45.801228</ele>
        <time>2021-05-09T17:53:32.544Z</time>
      </trkpt>
      <trkpt lat="50.56415" lon="3.34974">
        <ele>44.745218</ele>
        <time>2021-05-09T17:53:57.431Z</time>
      </trkpt>
      <trkpt lat="50.5642" lon="3.34961">
        <ele>44.714614</ele>
        <time>2021-05-09T17:53:59.333Z</time>
      </trkpt>
      <trkpt lat="50.56422" lon="3.34949">
        <ele>44.690442</ele>
        <time>2021-05-09T17:54:00.757Z</time>
      </trkpt>
      <trkpt lat="50.56459" lon="3.34786">
        <ele>44.370079</ele>
        <time>2021-05-09T17:54:22.440Z</time>
      </trkpt>
      <trkpt lat="50.56463" lon="3.34772">
        <ele>44.395967</ele>
        <time>2021-05-09T17:54:24.365Z</time>
      </trkpt>
      <trkpt lat="50.56466" lon="3.3476">
        <ele>44.418001</ele>
        <time>2021-05-09T17:54:26.031Z</time>
      </trkpt>
      <trkpt lat="50.56544" lon="3.3456">
        <ele>44.81722</ele>
        <time>2021-05-09T17:54:57.911Z</time>
      </trkpt>
      <trkpt lat="50.56631" lon="3.34416">
        <ele>45.80267</ele>
        <time>2021-05-09T17:55:27.113Z</time>
      </trkpt>
      <trkpt lat="50.56655" lon="3.34341">
        <ele>46.236643</ele>
        <time>2021-05-09T17:55:40.324Z</time>
      </trkpt>
      <trkpt lat="50.56676" lon="3.34233">
        <ele>47.09611</ele>
        <time>2021-05-09T17:55:58.293Z</time>
      </trkpt>
      <trkpt lat="50.56699" lon="3.34188">
        <ele>47.555008</ele>
        <time>2021-05-09T17:56:07.546Z</time>
      </trkpt>
      <trkpt lat="50.56711" lon="3.34175">
        <ele>47.732308</ele>
        <time>2021-05-09T17:56:11.286Z</time>
      </trkpt>
      <trkpt lat="50.56703" lon="3.34159">
        <ele>47.895944</ele>
        <time>2021-05-09T17:56:14.552Z</time>
      </trkpt>
      <trkpt lat="50.5665" lon="3.34047">
        <ele>49.051698</ele>
        <time>2021-05-09T17:56:36.898Z</time>
      </trkpt>
      <trkpt lat="50.56541" lon="3.3387">
        <ele>51.30186</ele>
        <time>2021-05-09T17:57:17.311Z</time>
      </trkpt>
      <trkpt lat="50.5638" lon="3.33666">
        <ele>55.223845</ele>
        <time>2021-05-09T17:58:16.448Z</time>
      </trkpt>
      <trkpt lat="50.56362" lon="3.33628">
        <ele>55.724096</ele>
        <time>2021-05-09T17:58:24.824Z</time>
      </trkpt>
      <trkpt lat="50.56342" lon="3.33546">
        <ele>56.648667</ele>
        <time>2021-05-09T17:58:40.783Z</time>
      </trkpt>
      <trkpt lat="50.5634" lon="3.33518">
        <ele>56.944519</ele>
        <time>2021-05-09T17:58:45.135Z</time>
      </trkpt>
      <trkpt lat="50.56341" lon="3.33509">
        <ele>57.036391</ele>
        <time>2021-05-09T17:58:47.377Z</time>
      </trkpt>
      <trkpt lat="50.56344" lon="3.33501">
        <ele>57.139332</ele>
        <time>2021-05-09T17:58:48.694Z</time>
      </trkpt>
      <trkpt lat="50.5637" lon="3.33472">
        <ele>57.482245</ele>
        <time>2021-05-09T17:58:56.156Z</time>
      </trkpt>
      <trkpt lat="50.56376" lon="3.33442">
        <ele>57.365037</ele>
        <time>2021-05-09T17:58:59.941Z</time>
      </trkpt>
      <trkpt lat="50.56373" lon="3.33427">
        <ele>57.308557</ele>
        <time>2021-05-09T17:59:02.131Z</time>
      </trkpt>
      <trkpt lat="50.56328" lon="3.33362">
        <ele>56.949503</ele>
        <time>2021-05-09T17:59:13.992Z</time>
      </trkpt>
      <trkpt lat="50.56312" lon="3.33339">
        <ele>56.826394</ele>
        <time>2021-05-09T17:59:18.228Z</time>
      </trkpt>
      <trkpt lat="50.56314" lon="3.33337">
        <ele>56.811264</ele>
        <time>2021-05-09T17:59:18.566Z</time>
      </trkpt>
      <trkpt lat="50.56354" lon="3.33297">
        <ele>56.534574</ele>
        <time>2021-05-09T17:59:26.325Z</time>
      </trkpt>
      <trkpt lat="50.56496" lon="3.33212">
        <ele>53.708926</ele>
        <time>2021-05-09T17:59:50.194Z</time>
      </trkpt>
      <trkpt lat="50.56552" lon="3.33201">
        <ele>52.669659</ele>
        <time>2021-05-09T17:59:59.159Z</time>
      </trkpt>
      <trkpt lat="50.56706" lon="3.33206">
        <ele>50.148906</ele>
        <time>2021-05-09T18:00:24.092Z</time>
      </trkpt>
      <trkpt lat="50.56767" lon="3.33192">
        <ele>49.389116</ele>
        <time>2021-05-09T18:00:34.334Z</time>
      </trkpt>
      <trkpt lat="50.56781" lon="3.33189">
        <ele>49.22376</ele>
        <time>2021-05-09T18:00:36.684Z</time>
      </trkpt>
      <trkpt lat="50.56788" lon="3.33187">
        <ele>49.143661</ele>
        <time>2021-05-09T18:00:37.496Z</time>
      </trkpt>
      <trkpt lat="50.56802" lon="3.33182">
        <ele>48.975975</ele>
        <time>2021-05-09T18:00:39.187Z</time>
      </trkpt>
      <trkpt lat="50.56853" lon="3.33166">
        <ele>48.369229</ele>
        <time>2021-05-09T18:00:45.391Z</time>
      </trkpt>
      <trkpt lat="50.56896" lon="3.33157">
        <ele>47.904855</ele>
        <time>2021-05-09T18:00:51.128Z</time>
      </trkpt>
      <trkpt lat="50.56962" lon="3.33182">
        <ele>47.682439</ele>
        <time>2021-05-09T18:01:00.292Z</time>
      </trkpt>
      <trkpt lat="50.56994" lon="3.33179">
        <ele>47.579791</ele>
        <time>2021-05-09T18:01:04.480Z</time>
      </trkpt>
      <trkpt lat="50.56999" lon="3.33177">
        <ele>47.562419</ele>
        <time>2021-05-09T18:01:05.525Z</time>
      </trkpt>
      <trkpt lat="50.5706" lon="3.3315">
        <ele>47.355241</ele>
        <time>2021-05-09T18:01:14.429Z</time>
      </trkpt>
      <trkpt lat="50.57065" lon="3.33148">
        <ele>47.338927</ele>
        <time>2021-05-09T18:01:15.413Z</time>
      </trkpt>
      <trkpt lat="50.57136" lon="3.33117">
        <ele>46.800468</ele>
        <time>2021-05-09T18:01:25.700Z</time>
      </trkpt>
      <trkpt lat="50.57184" lon="3.3311">
        <ele>46.446674</ele>
        <time>2021-05-09T18:01:31.854Z</time>
      </trkpt>
      <trkpt lat="50.57231" lon="3.33117">
        <ele>46.10455</ele>
        <time>2021-05-09T18:01:37.443Z</time>
      </trkpt>
      <trkpt lat="50.57285" lon="3.33125">
        <ele>45.284339</ele>
        <time>2021-05-09T18:01:43.710Z</time>
      </trkpt>
      <trkpt lat="50.57335" lon="3.33133">
        <ele>44.428368</ele>
        <time>2021-05-09T18:01:49.505Z</time>
      </trkpt>
      <trkpt lat="50.57355" lon="3.33136">
        <ele>44.081536</ele>
        <time>2021-05-09T18:01:51.650Z</time>
      </trkpt>
      <trkpt lat="50.57437" lon="3.33153">
        <ele>42.76307</ele>
        <time>2021-05-09T18:02:00.791Z</time>
      </trkpt>
      <trkpt lat="50.57469" lon="3.33147">
        <ele>42.395658</ele>
        <time>2021-05-09T18:02:04.338Z</time>
      </trkpt>
      <trkpt lat="50.57493" lon="3.33143">
        <ele>42.111282</ele>
        <time>2021-05-09T18:02:07.141Z</time>
      </trkpt>
      <trkpt lat="50.57499" lon="3.33143">
        <ele>42.045897</ele>
        <time>2021-05-09T18:02:07.733Z</time>
      </trkpt>
      <trkpt lat="50.57519" lon="3.3314">
        <ele>41.810115</ele>
        <time>2021-05-09T18:02:10.141Z</time>
      </trkpt>
      <trkpt lat="50.57569" lon="3.33153">
        <ele>41.222568</ele>
        <time>2021-05-09T18:02:16.342Z</time>
      </trkpt>
      <trkpt lat="50.57583" lon="3.33156">
        <ele>41.05004</ele>
        <time>2021-05-09T18:02:18.173Z</time>
      </trkpt>
      <trkpt lat="50.57591" lon="3.33158">
        <ele>40.956178</ele>
        <time>2021-05-09T18:02:19.281Z</time>
      </trkpt>
      <trkpt lat="50.57685" lon="3.33131">
        <ele>41.510246</ele>
        <time>2021-05-09T18:02:34.497Z</time>
      </trkpt>
      <trkpt lat="50.57698" lon="3.33122">
        <ele>41.618042</ele>
        <time>2021-05-09T18:02:37.182Z</time>
      </trkpt>
      <trkpt lat="50.57703" lon="3.331">
        <ele>41.731789</ele>
        <time>2021-05-09T18:02:40.346Z</time>
      </trkpt>
      <trkpt lat="50.57699" lon="3.33048">
        <ele>41.978362</ele>
        <time>2021-05-09T18:02:46.861Z</time>
      </trkpt>
      <trkpt lat="50.57674" lon="3.32968">
        <ele>42.692909</ele>
        <time>2021-05-09T18:02:58.683Z</time>
      </trkpt>
      <trkpt lat="50.57647" lon="3.32886">
        <ele>43.777703</ele>
        <time>2021-05-09T18:03:12.185Z</time>
      </trkpt>
      <trkpt lat="50.57648" lon="3.32855">
        <ele>44.14131</ele>
        <time>2021-05-09T18:03:16.796Z</time>
      </trkpt>
      <trkpt lat="50.57664" lon="3.32827">
        <ele>44.576186</ele>
        <time>2021-05-09T18:03:22.359Z</time>
      </trkpt>
      <trkpt lat="50.57713" lon="3.32801">
        <ele>45.526242</ele>
        <time>2021-05-09T18:03:34.067Z</time>
      </trkpt>
      <trkpt lat="50.57737" lon="3.32795">
        <ele>45.882841</ele>
        <time>2021-05-09T18:03:39.292Z</time>
      </trkpt>
      <trkpt lat="50.57766" lon="3.32796">
        <ele>46.310563</ele>
        <time>2021-05-09T18:03:45.472Z</time>
      </trkpt>
      <trkpt lat="50.57787" lon="3.32798">
        <ele>46.6231</ele>
        <time>2021-05-09T18:03:49.979Z</time>
      </trkpt>
      <trkpt lat="50.57804" lon="3.32802">
        <ele>46.869647</ele>
        <time>2021-05-09T18:03:53.388Z</time>
      </trkpt>
      <trkpt lat="50.5782" lon="3.32803">
        <ele>47.102189</ele>
        <time>2021-05-09T18:03:56.675Z</time>
      </trkpt>
      <trkpt lat="50.57829" lon="3.32806">
        <ele>47.237959</ele>
        <time>2021-05-09T18:03:58.566Z</time>
      </trkpt>
      <trkpt lat="50.57837" lon="3.32807">
        <ele>47.358658</ele>
        <time>2021-05-09T18:04:00.653Z</time>
      </trkpt>
      <trkpt lat="50.57869" lon="3.32814">
        <ele>47.82967</ele>
        <time>2021-05-09T18:04:08.993Z</time>
      </trkpt>
      <trkpt lat="50.57888" lon="3.32819">
        <ele>48.123836</ele>
        <time>2021-05-09T18:04:14.161Z</time>
      </trkpt>
      <trkpt lat="50.57985" lon="3.32835">
        <ele>48.795592</ele>
        <time>2021-05-09T18:04:36.439Z</time>
      </trkpt>
      <trkpt lat="50.58011" lon="3.32844">
        <ele>48.982284</ele>
        <time>2021-05-09T18:04:42.450Z</time>
      </trkpt>
      <trkpt lat="50.58197" lon="3.3292">
        <ele>50.163867</ele>
        <time>2021-05-09T18:05:25.142Z</time>
      </trkpt>
      <trkpt lat="50.58206" lon="3.32927">
        <ele>50.22563</ele>
        <time>2021-05-09T18:05:27.515Z</time>
      </trkpt>
      <trkpt lat="50.58216" lon="3.32941">
        <ele>50.30258</ele>
        <time>2021-05-09T18:05:30.538Z</time>
      </trkpt>
      <trkpt lat="50.58226" lon="3.32957">
        <ele>50.38417</ele>
        <time>2021-05-09T18:05:33.825Z</time>
      </trkpt>
      <trkpt lat="50.58232" lon="3.32974">
        <ele>50.476966</ele>
        <time>2021-05-09T18:05:36.770Z</time>
      </trkpt>
      <trkpt lat="50.58316" lon="3.3333">
        <ele>52.923057</ele>
        <time>2021-05-09T18:06:35.625Z</time>
      </trkpt>
      <trkpt lat="50.58372" lon="3.33572">
        <ele>54.571301</ele>
        <time>2021-05-09T18:07:07.164Z</time>
      </trkpt>
      <trkpt lat="50.58425" lon="3.33793">
        <ele>55.821239</ele>
        <time>2021-05-09T18:07:34.053Z</time>
      </trkpt>
      <trkpt lat="50.58453" lon="3.33874">
        <ele>56.174185</ele>
        <time>2021-05-09T18:07:44.125Z</time>
      </trkpt>
      <trkpt lat="50.58494" lon="3.33966">
        <ele>56.60304</ele>
        <time>2021-05-09T18:07:56.322Z</time>
      </trkpt>
      <trkpt lat="50.58504" lon="3.33986">
        <ele>56.698432</ele>
        <time>2021-05-09T18:07:59.005Z</time>
      </trkpt>
      <trkpt lat="50.58506" lon="3.33993">
        <ele>56.728681</ele>
        <time>2021-05-09T18:07:59.963Z</time>
      </trkpt>
      <trkpt lat="50.58519" lon="3.3405">
        <ele>57.010224</ele>
        <time>2021-05-09T18:08:06.512Z</time>
      </trkpt>
      <trkpt lat="50.58599" lon="3.34512">
        <ele>59.472202</ele>
        <time>2021-05-09T18:09:02.090Z</time>
      </trkpt>
      <trkpt lat="50.58661" lon="3.34868">
        <ele>60.686645</ele>
        <time>2021-05-09T18:09:44.000Z</time>
      </trkpt>
      <trkpt lat="50.58663" lon="3.34876">
        <ele>60.650357</ele>
        <time>2021-05-09T18:09:44.577Z</time>
      </trkpt>
      <trkpt lat="50.58708" lon="3.35138">
        <ele>59.44191</ele>
        <time>2021-05-09T18:10:05.599Z</time>
      </trkpt>
      <trkpt lat="50.5871" lon="3.3516">
        <ele>59.332528</ele>
        <time>2021-05-09T18:10:07.226Z</time>
      </trkpt>
      <trkpt lat="50.58776" lon="3.35227">
        <ele>58.727078</ele>
        <time>2021-05-09T18:10:17.058Z</time>
      </trkpt>
      <trkpt lat="50.58832" lon="3.35288">
        <ele>58.246595</ele>
        <time>2021-05-09T18:10:25.937Z</time>
      </trkpt>
      <trkpt lat="50.58895" lon="3.35397">
        <ele>58.103817</ele>
        <time>2021-05-09T18:10:39.767Z</time>
      </trkpt>
      <trkpt lat="50.58979" lon="3.3555">
        <ele>57.925267</ele>
        <time>2021-05-09T18:10:58.331Z</time>
      </trkpt>
      <trkpt lat="50.58986" lon="3.35563">
        <ele>57.912829</ele>
        <time>2021-05-09T18:10:59.876Z</time>
      </trkpt>
      <trkpt lat="50.58991" lon="3.35573">
        <ele>57.903314</ele>
        <time>2021-05-09T18:11:01.056Z</time>
      </trkpt>
      <trkpt lat="50.59062" lon="3.35711">
        <ele>57.769195</ele>
        <time>2021-05-09T18:11:17.398Z</time>
      </trkpt>
      <trkpt lat="50.59122" lon="3.35828">
        <ele>57.258964</ele>
        <time>2021-05-09T18:11:30.814Z</time>
      </trkpt>
      <trkpt lat="50.59197" lon="3.35986">
        <ele>56.084582</ele>
        <time>2021-05-09T18:11:46.416Z</time>
      </trkpt>
      <trkpt lat="50.5922" lon="3.36041">
        <ele>55.350011</ele>
        <time>2021-05-09T18:11:51.172Z</time>
      </trkpt>
      <trkpt lat="50.59106" lon="3.36084">
        <ele>53.189088</ele>
        <time>2021-05-09T18:12:09.457Z</time>
      </trkpt>
      <trkpt lat="50.58841" lon="3.36168">
        <ele>47.550748</ele>
        <time>2021-05-09T18:12:51.352Z</time>
      </trkpt>
      <trkpt lat="50.58819" lon="3.36183">
        <ele>47.120895</ele>
        <time>2021-05-09T18:12:55.212Z</time>
      </trkpt>
      <trkpt lat="50.58798" lon="3.36203">
        <ele>46.66332</ele>
        <time>2021-05-09T18:12:59.282Z</time>
      </trkpt>
      <trkpt lat="50.58772" lon="3.36237">
        <ele>46.199543</ele>
        <time>2021-05-09T18:13:05.078Z</time>
      </trkpt>
      <trkpt lat="50.58707" lon="3.36322">
        <ele>45.626354</ele>
        <time>2021-05-09T18:13:20.266Z</time>
      </trkpt>
      <trkpt lat="50.58551" lon="3.36451">
        <ele>44.470019</ele>
        <time>2021-05-09T18:13:53.670Z</time>
      </trkpt>
      <trkpt lat="50.58538" lon="3.36461">
        <ele>44.377068</ele>
        <time>2021-05-09T18:13:56.378Z</time>
      </trkpt>
      <trkpt lat="50.58512" lon="3.36487">
        <ele>44.18328</ele>
        <time>2021-05-09T18:14:00.321Z</time>
      </trkpt>
      <trkpt lat="50.58362" lon="3.36694">
        <ele>41.468264</ele>
        <time>2021-05-09T18:14:23.823Z</time>
      </trkpt>
      <trkpt lat="50.58359" lon="3.36698">
        <ele>41.405712</ele>
        <time>2021-05-09T18:14:24.295Z</time>
      </trkpt>
      <trkpt lat="50.5834" lon="3.36725">
        <ele>40.8652</ele>
        <time>2021-05-09T18:14:27.004Z</time>
      </trkpt>
      <trkpt lat="50.58309" lon="3.36768">
        <ele>39.625315</ele>
        <time>2021-05-09T18:14:31.317Z</time>
      </trkpt>
      <trkpt lat="50.58291" lon="3.3677">
        <ele>39.076009</ele>
        <time>2021-05-09T18:14:33.147Z</time>
      </trkpt>
      <trkpt lat="50.58269" lon="3.36746">
        <ele>38.292755</ele>
        <time>2021-05-09T18:14:35.872Z</time>
      </trkpt>
      <trkpt lat="50.58265" lon="3.36741">
        <ele>38.13788</ele>
        <time>2021-05-09T18:14:36.363Z</time>
      </trkpt>
      <trkpt lat="50.58261" lon="3.36736">
        <ele>37.966465</ele>
        <time>2021-05-09T18:14:36.907Z</time>
      </trkpt>
      <trkpt lat="50.58252" lon="3.36734">
        <ele>37.684493</ele>
        <time>2021-05-09T18:14:37.887Z</time>
      </trkpt>
      <trkpt lat="50.58201" lon="3.3676">
        <ele>36.096004</ele>
        <time>2021-05-09T18:14:43.172Z</time>
      </trkpt>
      <trkpt lat="50.58179" lon="3.36771">
        <ele>35.425663</ele>
        <time>2021-05-09T18:14:45.566Z</time>
      </trkpt>
      <trkpt lat="50.58176" lon="3.36774">
        <ele>35.34455</ele>
        <time>2021-05-09T18:14:45.857Z</time>
      </trkpt>
      <trkpt lat="50.58103" lon="3.36842">
        <ele>33.094693</ele>
        <time>2021-05-09T18:14:54.637Z</time>
      </trkpt>
      <trkpt lat="50.58091" lon="3.36843">
        <ele>32.796416</ele>
        <time>2021-05-09T18:14:55.793Z</time>
      </trkpt>
      <trkpt lat="50.58136" lon="3.36924">
        <ele>31.005666</ele>
        <time>2021-05-09T18:15:03.220Z</time>
      </trkpt>
      <trkpt lat="50.58139" lon="3.36931">
        <ele>30.945359</ele>
        <time>2021-05-09T18:15:03.763Z</time>
      </trkpt>
      <trkpt lat="50.5819" lon="3.37044">
        <ele>29.939921</ele>
        <time>2021-05-09T18:15:14.271Z</time>
      </trkpt>
      <trkpt lat="50.58206" lon="3.37097">
        <ele>29.512686</ele>
        <time>2021-05-09T18:15:19.057Z</time>
      </trkpt>
      <trkpt lat="50.58213" lon="3.37118">
        <ele>29.344505</ele>
        <time>2021-05-09T18:15:20.897Z</time>
      </trkpt>
      <trkpt lat="50.58268" lon="3.37241">
        <ele>28.588574</ele>
        <time>2021-05-09T18:15:33.194Z</time>
      </trkpt>
      <trkpt lat="50.58294" lon="3.37303">
        <ele>28.308813</ele>
        <time>2021-05-09T18:15:39.251Z</time>
      </trkpt>
      <trkpt lat="50.58315" lon="3.37352">
        <ele>28.085263</ele>
        <time>2021-05-09T18:15:44.269Z</time>
      </trkpt>
      <trkpt lat="50.58326" lon="3.37377">
        <ele>27.971891</ele>
        <time>2021-05-09T18:15:46.827Z</time>
      </trkpt>
      <trkpt lat="50.5833" lon="3.3739">
        <ele>27.920175</ele>
        <time>2021-05-09T18:15:47.977Z</time>
      </trkpt>
      <trkpt lat="50.58381" lon="3.37578">
        <ele>27.559345</ele>
        <time>2021-05-09T18:16:05.763Z</time>
      </trkpt>
      <trkpt lat="50.58403" lon="3.37641">
        <ele>27.439383</ele>
        <time>2021-05-09T18:16:12.322Z</time>
      </trkpt>
      <trkpt lat="50.58426" lon="3.37692">
        <ele>27.403866</ele>
        <time>2021-05-09T18:16:18.233Z</time>
      </trkpt>
      <trkpt lat="50.58519" lon="3.37832">
        <ele>27.366222</ele>
        <time>2021-05-09T18:16:37.571Z</time>
      </trkpt>
      <trkpt lat="50.58545" lon="3.37889">
        <ele>27.29496</ele>
        <time>2021-05-09T18:16:43.992Z</time>
      </trkpt>
      <trkpt lat="50.58581" lon="3.38078">
        <ele>26.934447</ele>
        <time>2021-05-09T18:17:01.446Z</time>
      </trkpt>
      <trkpt lat="50.58584" lon="3.38105">
        <ele>26.884849</ele>
        <time>2021-05-09T18:17:03.723Z</time>
      </trkpt>
      <trkpt lat="50.58586" lon="3.38134">
        <ele>26.829132</ele>
        <time>2021-05-09T18:17:06.201Z</time>
      </trkpt>
      <trkpt lat="50.58583" lon="3.38172">
        <ele>26.744606</ele>
        <time>2021-05-09T18:17:09.350Z</time>
      </trkpt>
      <trkpt lat="50.58584" lon="3.3822">
        <ele>26.637666</ele>
        <time>2021-05-09T18:17:13.433Z</time>
      </trkpt>
      <trkpt lat="50.58588" lon="3.38273">
        <ele>26.519084</ele>
        <time>2021-05-09T18:17:17.992Z</time>
      </trkpt>
      <trkpt lat="50.58589" lon="3.38281">
        <ele>26.500211</ele>
        <time>2021-05-09T18:17:18.660Z</time>
      </trkpt>
      <trkpt lat="50.58608" lon="3.38371">
        <ele>26.288088</ele>
        <time>2021-05-09T18:17:26.985Z</time>
      </trkpt>
      <trkpt lat="50.58611" lon="3.38386">
        <ele>26.253692</ele>
        <time>2021-05-09T18:17:28.315Z</time>
      </trkpt>
      <trkpt lat="50.58672" lon="3.38678">
        <ele>25.93579</ele>
        <time>2021-05-09T18:17:56.651Z</time>
      </trkpt>
      <trkpt lat="50.58676" lon="3.38696">
        <ele>25.887362</ele>
        <time>2021-05-09T18:17:58.303Z</time>
      </trkpt>
      <trkpt lat="50.58686" lon="3.3874">
        <ele>25.767979</ele>
        <time>2021-05-09T18:18:02.444Z</time>
      </trkpt>
      <trkpt lat="50.58693" lon="3.3876">
        <ele>25.708111</ele>
        <time>2021-05-09T18:18:04.390Z</time>
      </trkpt>
      <trkpt lat="50.58696" lon="3.38771">
        <ele>25.678588</ele>
        <time>2021-05-09T18:18:05.395Z</time>
      </trkpt>
      <trkpt lat="50.58705" lon="3.38797">
        <ele>25.604165</ele>
        <time>2021-05-09T18:18:07.998Z</time>
      </trkpt>
      <trkpt lat="50.58706" lon="3.388">
        <ele>25.593761</ele>
        <time>2021-05-09T18:18:08.265Z</time>
      </trkpt>
      <trkpt lat="50.58827" lon="3.39089">
        <ele>25.069094</ele>
        <time>2021-05-09T18:18:37.754Z</time>
      </trkpt>
      <trkpt lat="50.58841" lon="3.39128">
        <ele>25.034402</ele>
        <time>2021-05-09T18:18:42.290Z</time>
      </trkpt>
      <trkpt lat="50.58851" lon="3.39166">
        <ele>25.047715</ele>
        <time>2021-05-09T18:18:46.766Z</time>
      </trkpt>
      <trkpt lat="50.58865" lon="3.39224">
        <ele>25.550787</ele>
        <time>2021-05-09T18:18:53.805Z</time>
      </trkpt>
      <trkpt lat="50.58896" lon="3.39297">
        <ele>26.257375</ele>
        <time>2021-05-09T18:19:04.451Z</time>
      </trkpt>
      <trkpt lat="50.58904" lon="3.39309">
        <ele>26.398303</ele>
        <time>2021-05-09T18:19:06.890Z</time>
      </trkpt>
      <trkpt lat="50.58887" lon="3.39326">
        <ele>26.651407</ele>
        <time>2021-05-09T18:19:10.954Z</time>
      </trkpt>
      <trkpt lat="50.58668" lon="3.3946">
        <ele>31.227357</ele>
        <time>2021-05-09T18:20:05.280Z</time>
      </trkpt>
      <trkpt lat="50.58533" lon="3.39506">
        <ele>34.787736</ele>
        <time>2021-05-09T18:20:40.200Z</time>
      </trkpt>
      <trkpt lat="50.58484" lon="3.39527">
        <ele>36.173793</ele>
        <time>2021-05-09T18:20:53.456Z</time>
      </trkpt>
      <trkpt lat="50.58438" lon="3.3954">
        <ele>37.600543</ele>
        <time>2021-05-09T18:21:05.482Z</time>
      </trkpt>
      <trkpt lat="50.58257" lon="3.39525">
        <ele>43.403712</ele>
        <time>2021-05-09T18:21:55.445Z</time>
      </trkpt>
      <trkpt lat="50.58256" lon="3.39525">
        <ele>43.470251</ele>
        <time>2021-05-09T18:21:56.656Z</time>
      </trkpt>
      <trkpt lat="50.57849" lon="3.39497">
        <ele>57.413978</ele>
        <time>2021-05-09T18:23:54.150Z</time>
      </trkpt>
      <trkpt lat="50.57822" lon="3.39482">
        <ele>58.352936</ele>
        <time>2021-05-09T18:24:02.137Z</time>
      </trkpt>
      <trkpt lat="50.57736" lon="3.39415">
        <ele>60.707344</ele>
        <time>2021-05-09T18:24:26.753Z</time>
      </trkpt>
      <trkpt lat="50.57696" lon="3.39395">
        <ele>61.467872</ele>
        <time>2021-05-09T18:24:36.342Z</time>
      </trkpt>
      <trkpt lat="50.57647" lon="3.39385">
        <ele>62.371414</ele>
        <time>2021-05-09T18:24:46.900Z</time>
      </trkpt>
      <trkpt lat="50.57541" lon="3.39409">
        <ele>62.831805</ele>
        <time>2021-05-09T18:25:05.026Z</time>
      </trkpt>
      <trkpt lat="50.57506" lon="3.39426">
        <ele>62.753788</ele>
        <time>2021-05-09T18:25:10.176Z</time>
      </trkpt>
      <trkpt lat="50.57486" lon="3.39435">
        <ele>62.710739</ele>
        <time>2021-05-09T18:25:12.834Z</time>
      </trkpt>
      <trkpt lat="50.57308" lon="3.39461">
        <ele>60.766282</ele>
        <time>2021-05-09T18:25:34.134Z</time>
      </trkpt>
      <trkpt lat="50.57273" lon="3.39465">
        <ele>60.260787</ele>
        <time>2021-05-09T18:25:38.120Z</time>
      </trkpt>
      <trkpt lat="50.57394" lon="3.40253">
        <ele>49.353742</ele>
        <time>2021-05-09T18:26:33.714Z</time>
      </trkpt>
      <trkpt lat="50.57522" lon="3.41077">
        <ele>44.629943</ele>
        <time>2021-05-09T18:27:42.224Z</time>
      </trkpt>
      <trkpt lat="50.57552" lon="3.41266">
        <ele>43.567764</ele>
        <time>2021-05-09T18:27:57.092Z</time>
      </trkpt>
      <trkpt lat="50.57553" lon="3.41271">
        <ele>43.539288</ele>
        <time>2021-05-09T18:27:57.473Z</time>
      </trkpt>
      <trkpt lat="50.57572" lon="3.41258">
        <ele>43.361696</ele>
        <time>2021-05-09T18:28:00.049Z</time>
      </trkpt>
      <trkpt lat="50.57683" lon="3.41203">
        <ele>42.909797</ele>
        <time>2021-05-09T18:28:15.446Z</time>
      </trkpt>
      <trkpt lat="50.57882" lon="3.41132">
        <ele>43.93751</ele>
        <time>2021-05-09T18:28:51.321Z</time>
      </trkpt>
      <trkpt lat="50.57959" lon="3.41104">
        <ele>44.56609</ele>
        <time>2021-05-09T18:29:06.086Z</time>
      </trkpt>
      <trkpt lat="50.57965" lon="3.41102">
        <ele>44.613858</ele>
        <time>2021-05-09T18:29:07.209Z</time>
      </trkpt>
      <trkpt lat="50.58035" lon="3.41074">
        <ele>44.964337</ele>
        <time>2021-05-09T18:29:20.036Z</time>
      </trkpt>
      <trkpt lat="50.5816" lon="3.41023">
        <ele>45.374533</ele>
        <time>2021-05-09T18:29:40.498Z</time>
      </trkpt>
      <trkpt lat="50.58273" lon="3.40976">
        <ele>44.863546</ele>
        <time>2021-05-09T18:29:56.743Z</time>
      </trkpt>
      <trkpt lat="50.58293" lon="3.40966">
        <ele>44.766741</ele>
        <time>2021-05-09T18:29:59.537Z</time>
      </trkpt>
      <trkpt lat="50.58555" lon="3.41295">
        <ele>41.485244</ele>
        <time>2021-05-09T18:30:57.015Z</time>
      </trkpt>
      <trkpt lat="50.58575" lon="3.41319">
        <ele>41.222238</ele>
        <time>2021-05-09T18:31:01.404Z</time>
      </trkpt>
      <trkpt lat="50.58733" lon="3.41513">
        <ele>39.384932</ele>
        <time>2021-05-09T18:31:37.107Z</time>
      </trkpt>
      <trkpt lat="50.5886" lon="3.41673">
        <ele>37.149134</ele>
        <time>2021-05-09T18:32:04.798Z</time>
      </trkpt>
      <trkpt lat="50.58749" lon="3.41943">
        <ele>32.492913</ele>
        <time>2021-05-09T18:32:36.269Z</time>
      </trkpt>
      <trkpt lat="50.58782" lon="3.41999">
        <ele>31.032732</ele>
        <time>2021-05-09T18:32:43.382Z</time>
      </trkpt>
      <trkpt lat="50.58797" lon="3.4205">
        <ele>29.866681</ele>
        <time>2021-05-09T18:32:48.384Z</time>
      </trkpt>
      <trkpt lat="50.58835" lon="3.42101">
        <ele>28.214755</ele>
        <time>2021-05-09T18:32:55.332Z</time>
      </trkpt>
      <trkpt lat="50.58884" lon="3.42122">
        <ele>26.501798</ele>
        <time>2021-05-09T18:33:03.034Z</time>
      </trkpt>
      <trkpt lat="50.58889" lon="3.42126">
        <ele>26.343053</ele>
        <time>2021-05-09T18:33:03.649Z</time>
      </trkpt>
      <trkpt lat="50.58896" lon="3.42133">
        <ele>26.063646</ele>
        <time>2021-05-09T18:33:04.833Z</time>
      </trkpt>
      <trkpt lat="50.58911" lon="3.42148">
        <ele>25.786317</ele>
        <time>2021-05-09T18:33:08.025Z</time>
      </trkpt>
      <trkpt lat="50.58923" lon="3.42171">
        <ele>25.47531</ele>
        <time>2021-05-09T18:33:10.849Z</time>
      </trkpt>
      <trkpt lat="50.58951" lon="3.42216">
        <ele>24.849598</ele>
        <time>2021-05-09T18:33:17.129Z</time>
      </trkpt>
      <trkpt lat="50.58949" lon="3.42218">
        <ele>24.82436</ele>
        <time>2021-05-09T18:33:17.535Z</time>
      </trkpt>
      <trkpt lat="50.58939" lon="3.42226">
        <ele>24.643469</ele>
        <time>2021-05-09T18:33:19.213Z</time>
      </trkpt>
      <trkpt lat="50.58874" lon="3.42283">
        <ele>23.46597</ele>
        <time>2021-05-09T18:33:27.657Z</time>
      </trkpt>
      <trkpt lat="50.58859" lon="3.42302">
        <ele>23.217916</ele>
        <time>2021-05-09T18:33:30.140Z</time>
      </trkpt>
      <trkpt lat="50.588" lon="3.42427">
        <ele>23.157233</ele>
        <time>2021-05-09T18:33:46.919Z</time>
      </trkpt>
      <trkpt lat="50.58771" lon="3.42463">
        <ele>23.134774</ele>
        <time>2021-05-09T18:33:52.403Z</time>
      </trkpt>
      <trkpt lat="50.58762" lon="3.42474">
        <ele>23.127968</ele>
        <time>2021-05-09T18:33:54.082Z</time>
      </trkpt>
      <trkpt lat="50.58705" lon="3.42549">
        <ele>22.870049</ele>
        <time>2021-05-09T18:34:03.920Z</time>
      </trkpt>
      <trkpt lat="50.58682" lon="3.42584">
        <ele>22.699262</ele>
        <time>2021-05-09T18:34:08.040Z</time>
      </trkpt>
      <trkpt lat="50.58548" lon="3.42867">
        <ele>22.108016</ele>
        <time>2021-05-09T18:34:37.612Z</time>
      </trkpt>
      <trkpt lat="50.58532" lon="3.42893">
        <ele>22.100017</ele>
        <time>2021-05-09T18:34:40.981Z</time>
      </trkpt>
      <trkpt lat="50.58526" lon="3.42903">
        <ele>22.09707</ele>
        <time>2021-05-09T18:34:42.645Z</time>
      </trkpt>
      <trkpt lat="50.5852" lon="3.42912">
        <ele>22.09405</ele>
        <time>2021-05-09T18:34:44.298Z</time>
      </trkpt>
      <trkpt lat="50.58514" lon="3.42922">
        <ele>22.091006</ele>
        <time>2021-05-09T18:34:45.880Z</time>
      </trkpt>
      <trkpt lat="50.58505" lon="3.42937">
        <ele>22.156356</ele>
        <time>2021-05-09T18:34:48.422Z</time>
      </trkpt>
      <trkpt lat="50.58463" lon="3.42999">
        <ele>23.240559</ele>
        <time>2021-05-09T18:35:00.443Z</time>
      </trkpt>
      <trkpt lat="50.58428" lon="3.43047">
        <ele>24.114236</ele>
        <time>2021-05-09T18:35:10.980Z</time>
      </trkpt>
      <trkpt lat="50.584" lon="3.43087">
        <ele>24.832334</ele>
        <time>2021-05-09T18:35:20.757Z</time>
      </trkpt>
      <trkpt lat="50.58283" lon="3.43223">
        <ele>27.088063</ele>
        <time>2021-05-09T18:35:55.684Z</time>
      </trkpt>
      <trkpt lat="50.58237" lon="3.43268">
        <ele>27.864442</ele>
        <time>2021-05-09T18:36:04.770Z</time>
      </trkpt>
      <trkpt lat="50.58228" lon="3.43276">
        <ele>28.005147</ele>
        <time>2021-05-09T18:36:06.120Z</time>
      </trkpt>
      <trkpt lat="50.58196" lon="3.43306">
        <ele>27.796274</ele>
        <time>2021-05-09T18:36:11.316Z</time>
      </trkpt>
      <trkpt lat="50.58189" lon="3.43312">
        <ele>27.725619</ele>
        <time>2021-05-09T18:36:12.352Z</time>
      </trkpt>
      <trkpt lat="50.58139" lon="3.43358">
        <ele>27.232047</ele>
        <time>2021-05-09T18:36:19.317Z</time>
      </trkpt>
      <trkpt lat="50.58122" lon="3.43377">
        <ele>27.051211</ele>
        <time>2021-05-09T18:36:21.739Z</time>
      </trkpt>
      <trkpt lat="50.58071" lon="3.43441">
        <ele>26.535503</ele>
        <time>2021-05-09T18:36:29.439Z</time>
      </trkpt>
      <trkpt lat="50.58042" lon="3.43475">
        <ele>26.549852</ele>
        <time>2021-05-09T18:36:33.973Z</time>
      </trkpt>
      <trkpt lat="50.58034" lon="3.43484">
        <ele>26.553783</ele>
        <time>2021-05-09T18:36:35.319Z</time>
      </trkpt>
      <trkpt lat="50.58026" lon="3.43491">
        <ele>26.557474</ele>
        <time>2021-05-09T18:36:36.749Z</time>
      </trkpt>
      <trkpt lat="50.57998" lon="3.43511">
        <ele>26.569757</ele>
        <time>2021-05-09T18:36:41.057Z</time>
      </trkpt>
      <trkpt lat="50.57934" lon="3.43528">
        <ele>26.596047</ele>
        <time>2021-05-09T18:36:51.997Z</time>
      </trkpt>
      <trkpt lat="50.57906" lon="3.43536">
        <ele>26.631754</ele>
        <time>2021-05-09T18:36:57.105Z</time>
      </trkpt>
      <trkpt lat="50.57881" lon="3.43554">
        <ele>26.820244</ele>
        <time>2021-05-09T18:37:02.937Z</time>
      </trkpt>
      <trkpt lat="50.5781" lon="3.43654">
        <ele>27.46922</ele>
        <time>2021-05-09T18:37:20.362Z</time>
      </trkpt>
      <trkpt lat="50.57809" lon="3.43668">
        <ele>27.527902</ele>
        <time>2021-05-09T18:37:22.325Z</time>
      </trkpt>
      <trkpt lat="50.5781" lon="3.43681">
        <ele>27.585972</ele>
        <time>2021-05-09T18:37:23.566Z</time>
      </trkpt>
      <trkpt lat="50.57825" lon="3.43755">
        <ele>27.635086</ele>
        <time>2021-05-09T18:37:31.676Z</time>
      </trkpt>
      <trkpt lat="50.57824" lon="3.4377">
        <ele>27.498809</ele>
        <time>2021-05-09T18:37:33.064Z</time>
      </trkpt>
      <trkpt lat="50.57821" lon="3.43781">
        <ele>27.395406</ele>
        <time>2021-05-09T18:37:34.345Z</time>
      </trkpt>
      <trkpt lat="50.57788" lon="3.43818">
        <ele>26.830353</ele>
        <time>2021-05-09T18:37:39.134Z</time>
      </trkpt>
      <trkpt lat="50.57725" lon="3.43853">
        <ele>25.906465</ele>
        <time>2021-05-09T18:37:46.459Z</time>
      </trkpt>
      <trkpt lat="50.5768" lon="3.43896">
        <ele>25.091829</ele>
        <time>2021-05-09T18:37:52.159Z</time>
      </trkpt>
      <trkpt lat="50.57669" lon="3.43905">
        <ele>24.804034</ele>
        <time>2021-05-09T18:37:53.585Z</time>
      </trkpt>
      <trkpt lat="50.57669" lon="3.43905">
        <ele>24.804034</ele>
        <time>2021-05-09T18:37:53.597Z</time>
      </trkpt>
      <trkpt lat="50.57659" lon="3.43913">
        <ele>24.554485</ele>
        <time>2021-05-09T18:37:54.768Z</time>
      </trkpt>
      <trkpt lat="50.57543" lon="3.43966">
        <ele>21.847083</ele>
        <time>2021-05-09T18:38:07.703Z</time>
      </trkpt>
      <trkpt lat="50.5749" lon="3.43983">
        <ele>20.842179</ele>
        <time>2021-05-09T18:38:13.628Z</time>
      </trkpt>
      <trkpt lat="50.57433" lon="3.43999">
        <ele>19.956864</ele>
        <time>2021-05-09T18:38:20.314Z</time>
      </trkpt>
      <trkpt lat="50.57352" lon="3.44022">
        <ele>18.677699</ele>
        <time>2021-05-09T18:38:29.932Z</time>
      </trkpt>
      <trkpt lat="50.57338" lon="3.44026">
        <ele>18.47233</ele>
        <time>2021-05-09T18:38:31.635Z</time>
      </trkpt>
      <trkpt lat="50.5726" lon="3.44048">
        <ele>17.627972</ele>
        <time>2021-05-09T18:38:41.003Z</time>
      </trkpt>
      <trkpt lat="50.57198" lon="3.44068">
        <ele>16.939177</ele>
        <time>2021-05-09T18:38:48.679Z</time>
      </trkpt>
      <trkpt lat="50.57181" lon="3.44073">
        <ele>16.754909</ele>
        <time>2021-05-09T18:38:50.796Z</time>
      </trkpt>
      <trkpt lat="50.57069" lon="3.44105">
        <ele>16.355254</ele>
        <time>2021-05-09T18:39:06.014Z</time>
      </trkpt>
      <trkpt lat="50.57006" lon="3.44111">
        <ele>16.205982</ele>
        <time>2021-05-09T18:39:16.133Z</time>
      </trkpt>
      <trkpt lat="50.56984" lon="3.4411">
        <ele>16.154751</ele>
        <time>2021-05-09T18:39:19.608Z</time>
      </trkpt>
      <trkpt lat="50.56941" lon="3.44107">
        <ele>16.048644</ele>
        <time>2021-05-09T18:39:25.761Z</time>
      </trkpt>
      <trkpt lat="50.56897" lon="3.44104">
        <ele>15.939753</ele>
        <time>2021-05-09T18:39:31.772Z</time>
      </trkpt>
      <trkpt lat="50.56843" lon="3.441">
        <ele>15.80666</ele>
        <time>2021-05-09T18:39:38.951Z</time>
      </trkpt>
      <trkpt lat="50.56834" lon="3.44099">
        <ele>15.784659</ele>
        <time>2021-05-09T18:39:40.185Z</time>
      </trkpt>
      <trkpt lat="50.5682" lon="3.44115">
        <ele>15.742386</ele>
        <time>2021-05-09T18:39:42.339Z</time>
      </trkpt>
      <trkpt lat="50.56792" lon="3.44113">
        <ele>15.846852</ele>
        <time>2021-05-09T18:39:46.169Z</time>
      </trkpt>
      <trkpt lat="50.56778" lon="3.44115">
        <ele>15.943891</ele>
        <time>2021-05-09T18:39:48.077Z</time>
      </trkpt>
      <trkpt lat="50.56759" lon="3.44133">
        <ele>16.099251</ele>
        <time>2021-05-09T18:39:51.265Z</time>
      </trkpt>
      <trkpt lat="50.56751" lon="3.4415">
        <ele>16.193485</ele>
        <time>2021-05-09T18:39:53.744Z</time>
      </trkpt>
      <trkpt lat="50.56749" lon="3.44176">
        <ele>16.3095</ele>
        <time>2021-05-09T18:39:56.268Z</time>
      </trkpt>
      <trkpt lat="50.56741" lon="3.44282">
        <ele>16.781819</ele>
        <time>2021-05-09T18:40:08.731Z</time>
      </trkpt>
      <trkpt lat="50.56739" lon="3.44333">
        <ele>17.124785</ele>
        <time>2021-05-09T18:40:16.428Z</time>
      </trkpt>
      <trkpt lat="50.56741" lon="3.44365">
        <ele>17.694145</ele>
        <time>2021-05-09T18:40:21.139Z</time>
      </trkpt>
      <trkpt lat="50.56743" lon="3.44376">
        <ele>17.911331</ele>
        <time>2021-05-09T18:40:23.114Z</time>
      </trkpt>
      <trkpt lat="50.56753" lon="3.44464">
        <ele>19.523422</ele>
        <time>2021-05-09T18:40:36.819Z</time>
      </trkpt>
      <trkpt lat="50.56752" lon="3.44475">
        <ele>19.728668</ele>
        <time>2021-05-09T18:40:39.295Z</time>
      </trkpt>
      <trkpt lat="50.56751" lon="3.44484">
        <ele>19.900337</ele>
        <time>2021-05-09T18:40:41.459Z</time>
      </trkpt>
      <trkpt lat="50.5675" lon="3.44495">
        <ele>20.087448</ele>
        <time>2021-05-09T18:40:43.246Z</time>
      </trkpt>
      <trkpt lat="50.56752" lon="3.44504">
        <ele>20.272144</ele>
        <time>2021-05-09T18:40:44.739Z</time>
      </trkpt>
      <trkpt lat="50.56758" lon="3.4453">
        <ele>20.770509</ele>
        <time>2021-05-09T18:40:49.689Z</time>
      </trkpt>
      <trkpt lat="50.56765" lon="3.44531">
        <ele>20.976609</ele>
        <time>2021-05-09T18:40:52.183Z</time>
      </trkpt>
      <trkpt lat="50.56769" lon="3.44538">
        <ele>21.144798</ele>
        <time>2021-05-09T18:40:53.807Z</time>
      </trkpt>
      <trkpt lat="50.56808" lon="3.44591">
        <ele>22.789688</ele>
        <time>2021-05-09T18:41:07.606Z</time>
      </trkpt>
      <trkpt lat="50.56822" lon="3.44607">
        <ele>23.422142</ele>
        <time>2021-05-09T18:41:13.055Z</time>
      </trkpt>
      <trkpt lat="50.56826" lon="3.44612">
        <ele>23.627535</ele>
        <time>2021-05-09T18:41:14.532Z</time>
      </trkpt>
      <trkpt lat="50.56834" lon="3.44621">
        <ele>23.985211</ele>
        <time>2021-05-09T18:41:16.787Z</time>
      </trkpt>
      <trkpt lat="50.56838" lon="3.44627">
        <ele>24.199519</ele>
        <time>2021-05-09T18:41:18.837Z</time>
      </trkpt>
      <trkpt lat="50.56839" lon="3.44628">
        <ele>24.24631</ele>
        <time>2021-05-09T18:41:19.321Z</time>
      </trkpt>
      <trkpt lat="50.56839" lon="3.44632">
        <ele>24.337534</ele>
        <time>2021-05-09T18:41:20.293Z</time>
      </trkpt>
      <trkpt lat="50.56839" lon="3.4464">
        <ele>24.521566</ele>
        <time>2021-05-09T18:41:22.210Z</time>
      </trkpt>
      <trkpt lat="50.56808" lon="3.44779">
        <ele>28.035553</ele>
        <time>2021-05-09T18:41:49.931Z</time>
      </trkpt>
      <trkpt lat="50.56806" lon="3.44794">
        <ele>28.408332</ele>
        <time>2021-05-09T18:41:53.416Z</time>
      </trkpt>
      <trkpt lat="50.568" lon="3.44821">
        <ele>29.085606</ele>
        <time>2021-05-09T18:41:58.990Z</time>
      </trkpt>
      <trkpt lat="50.56797" lon="3.44836">
        <ele>29.43646</ele>
        <time>2021-05-09T18:42:01.843Z</time>
      </trkpt>
      <trkpt lat="50.56777" lon="3.44929">
        <ele>31.706212</ele>
        <time>2021-05-09T18:42:20.788Z</time>
      </trkpt>
      <trkpt lat="50.56772" lon="3.44953">
        <ele>32.274406</ele>
        <time>2021-05-09T18:42:25.849Z</time>
      </trkpt>
      <trkpt lat="50.56772" lon="3.4497">
        <ele>32.679591</ele>
        <time>2021-05-09T18:42:29.122Z</time>
      </trkpt>
      <trkpt lat="50.56771" lon="3.44976">
        <ele>32.805143</ele>
        <time>2021-05-09T18:42:30.098Z</time>
      </trkpt>
      <trkpt lat="50.5677" lon="3.44998">
        <ele>33.330611</ele>
        <time>2021-05-09T18:42:34.469Z</time>
      </trkpt>
      <trkpt lat="50.56768" lon="3.45008">
        <ele>33.569749</ele>
        <time>2021-05-09T18:42:36.638Z</time>
      </trkpt>
      <trkpt lat="50.56753" lon="3.45073">
        <ele>35.139344</ele>
        <time>2021-05-09T18:42:49.146Z</time>
      </trkpt>
      <trkpt lat="50.56742" lon="3.45119">
        <ele>35.766861</ele>
        <time>2021-05-09T18:42:57.236Z</time>
      </trkpt>
      <trkpt lat="50.56736" lon="3.45141">
        <ele>36.001214</ele>
        <time>2021-05-09T18:43:00.995Z</time>
      </trkpt>
      <trkpt lat="50.56734" lon="3.4516">
        <ele>36.191588</ele>
        <time>2021-05-09T18:43:03.797Z</time>
      </trkpt>
      <trkpt lat="50.56726" lon="3.45246">
        <ele>37.032495</ele>
        <time>2021-05-09T18:43:14.259Z</time>
      </trkpt>
      <trkpt lat="50.56725" lon="3.45255">
        <ele>37.124882</ele>
        <time>2021-05-09T18:43:15.699Z</time>
      </trkpt>
      <trkpt lat="50.56721" lon="3.45288">
        <ele>37.452532</ele>
        <time>2021-05-09T18:43:19.565Z</time>
      </trkpt>
      <trkpt lat="50.56717" lon="3.45305">
        <ele>37.630672</ele>
        <time>2021-05-09T18:43:21.809Z</time>
      </trkpt>
      <trkpt lat="50.56692" lon="3.45358">
        <ele>38.168681</ele>
        <time>2021-05-09T18:43:29.545Z</time>
      </trkpt>
      <trkpt lat="50.56687" lon="3.45375">
        <ele>38.199392</ele>
        <time>2021-05-09T18:43:31.595Z</time>
      </trkpt>
      <trkpt lat="50.56678" lon="3.45402">
        <ele>38.252026</ele>
        <time>2021-05-09T18:43:34.759Z</time>
      </trkpt>
      <trkpt lat="50.56672" lon="3.45419">
        <ele>38.282981</ele>
        <time>2021-05-09T18:43:36.639Z</time>
      </trkpt>
      <trkpt lat="50.56666" lon="3.45446">
        <ele>38.332547</ele>
        <time>2021-05-09T18:43:39.391Z</time>
      </trkpt>
      <trkpt lat="50.56661" lon="3.45471">
        <ele>38.377002</ele>
        <time>2021-05-09T18:43:43.127Z</time>
      </trkpt>
      <trkpt lat="50.5666" lon="3.45477">
        <ele>38.387136</ele>
        <time>2021-05-09T18:43:43.961Z</time>
      </trkpt>
      <trkpt lat="50.56657" lon="3.45526">
        <ele>38.468907</ele>
        <time>2021-05-09T18:43:50.152Z</time>
      </trkpt>
      <trkpt lat="50.56654" lon="3.45624">
        <ele>38.648</ele>
        <time>2021-05-09T18:44:02.655Z</time>
      </trkpt>
      <trkpt lat="50.56653" lon="3.45662">
        <ele>38.785764</ele>
        <time>2021-05-09T18:44:07.781Z</time>
      </trkpt>
      <trkpt lat="50.56652" lon="3.45698">
        <ele>38.91854</ele>
        <time>2021-05-09T18:44:12.817Z</time>
      </trkpt>
      <trkpt lat="50.56648" lon="3.45704">
        <ele>38.951246</ele>
        <time>2021-05-09T18:44:14.110Z</time>
      </trkpt>
      <trkpt lat="50.5663" lon="3.45745">
        <ele>39.134011</ele>
        <time>2021-05-09T18:44:21.247Z</time>
      </trkpt>
      <trkpt lat="50.5664" lon="3.45755">
        <ele>39.203038</ele>
        <time>2021-05-09T18:44:24.020Z</time>
      </trkpt>
      <trkpt lat="50.56638" lon="3.45759">
        <ele>39.219861</ele>
        <time>2021-05-09T18:44:24.702Z</time>
      </trkpt>
      <trkpt lat="50.5664" lon="3.45761">
        <ele>39.236552</ele>
        <time>2021-05-09T18:44:25.371Z</time>
      </trkpt>
      <trkpt lat="50.56646" lon="3.45768">
        <ele>39.278864</ele>
        <time>2021-05-09T18:44:27.020Z</time>
      </trkpt>
      <trkpt lat="50.56648" lon="3.45762">
        <ele>39.303139</ele>
        <time>2021-05-09T18:44:27.967Z</time>
      </trkpt>
      <trkpt lat="50.56657" lon="3.45755">
        <ele>39.359459</ele>
        <time>2021-05-09T18:44:30.209Z</time>
      </trkpt>
      <trkpt lat="50.56666" lon="3.45768">
        <ele>39.43005</ele>
        <time>2021-05-09T18:44:33.063Z</time>
      </trkpt>
      <trkpt lat="50.56663" lon="3.45781">
        <ele>39.482405</ele>
        <time>2021-05-09T18:44:35.142Z</time>
      </trkpt>
      <trkpt lat="50.56653" lon="3.45787">
        <ele>39.544617</ele>
        <time>2021-05-09T18:44:37.621Z</time>
      </trkpt>
      <trkpt lat="50.5665" lon="3.45791">
        <ele>39.567658</ele>
        <time>2021-05-09T18:44:38.570Z</time>
      </trkpt>
      <trkpt lat="50.56646" lon="3.45858">
        <ele>39.845389</ele>
        <time>2021-05-09T18:44:48.808Z</time>
      </trkpt>
      <trkpt lat="50.56642" lon="3.45932">
        <ele>40.173174</ele>
        <time>2021-05-09T18:44:59.861Z</time>
      </trkpt>
      <trkpt lat="50.56638" lon="3.46002">
        <ele>40.488584</ele>
        <time>2021-05-09T18:45:10.212Z</time>
      </trkpt>
      <trkpt lat="50.56638" lon="3.461">
        <ele>40.927001</ele>
        <time>2021-05-09T18:45:24.857Z</time>
      </trkpt>
      <trkpt lat="50.5666" lon="3.46104">
        <ele>40.88946</ele>
        <time>2021-05-09T18:45:29.665Z</time>
      </trkpt>
      <trkpt lat="50.56658" lon="3.46128">
        <ele>40.861308</ele>
        <time>2021-05-09T18:45:32.106Z</time>
      </trkpt>
      <trkpt lat="50.56658" lon="3.46212">
        <ele>40.767122</ele>
        <time>2021-05-09T18:45:39.569Z</time>
      </trkpt>
      <trkpt lat="50.56658" lon="3.46245">
        <ele>40.729689</ele>
        <time>2021-05-09T18:45:42.396Z</time>
      </trkpt>
      <trkpt lat="50.56659" lon="3.46263">
        <ele>40.709422</ele>
        <time>2021-05-09T18:45:43.918Z</time>
      </trkpt>
      <trkpt lat="50.56659" lon="3.46275">
        <ele>40.694931</ele>
        <time>2021-05-09T18:45:45.011Z</time>
      </trkpt>
      <trkpt lat="50.5666" lon="3.46305">
        <ele>40.661483</ele>
        <time>2021-05-09T18:45:47.451Z</time>
      </trkpt>
      <trkpt lat="50.56661" lon="3.46326">
        <ele>40.63801</ele>
        <time>2021-05-09T18:45:49.159Z</time>
      </trkpt>
      <trkpt lat="50.56664" lon="3.46351">
        <ele>40.608577</ele>
        <time>2021-05-09T18:45:51.276Z</time>
      </trkpt>
      <trkpt lat="50.56668" lon="3.46401">
        <ele>40.614562</ele>
        <time>2021-05-09T18:45:55.437Z</time>
      </trkpt>
      <trkpt lat="50.56671" lon="3.46437">
        <ele>40.619107</ele>
        <time>2021-05-09T18:45:58.899Z</time>
      </trkpt>
      <trkpt lat="50.56675" lon="3.46474">
        <ele>40.623652</ele>
        <time>2021-05-09T18:46:02.299Z</time>
      </trkpt>
      <trkpt lat="50.5668" lon="3.46522">
        <ele>40.629604</ele>
        <time>2021-05-09T18:46:06.800Z</time>
      </trkpt>
      <trkpt lat="50.56686" lon="3.46567">
        <ele>40.635209</ele>
        <time>2021-05-09T18:46:11.403Z</time>
      </trkpt>
      <trkpt lat="50.56689" lon="3.46595">
        <ele>40.638669</ele>
        <time>2021-05-09T18:46:14.322Z</time>
      </trkpt>
      <trkpt lat="50.56691" lon="3.4661">
        <ele>40.640507</ele>
        <time>2021-05-09T18:46:16.041Z</time>
      </trkpt>
      <trkpt lat="50.56694" lon="3.46624">
        <ele>40.642243</ele>
        <time>2021-05-09T18:46:17.482Z</time>
      </trkpt>
      <trkpt lat="50.56699" lon="3.46663">
        <ele>40.817788</ele>
        <time>2021-05-09T18:46:22.099Z</time>
      </trkpt>
      <trkpt lat="50.56713" lon="3.46753">
        <ele>41.291098</ele>
        <time>2021-05-09T18:46:32.659Z</time>
      </trkpt>
      <trkpt lat="50.56717" lon="3.46782">
        <ele>41.44466</ele>
        <time>2021-05-09T18:46:36.357Z</time>
      </trkpt>
      <trkpt lat="50.56742" lon="3.46947">
        <ele>42.223448</ele>
        <time>2021-05-09T18:46:56.212Z</time>
      </trkpt>
      <trkpt lat="50.56742" lon="3.47048">
        <ele>42.51717</ele>
        <time>2021-05-09T18:47:06.942Z</time>
      </trkpt>
      <trkpt lat="50.56732" lon="3.47191">
        <ele>42.940714</ele>
        <time>2021-05-09T18:47:21.410Z</time>
      </trkpt>
      <trkpt lat="50.56769" lon="3.47349">
        <ele>43.509765</ele>
        <time>2021-05-09T18:47:38.869Z</time>
      </trkpt>
      <trkpt lat="50.56774" lon="3.47365">
        <ele>43.569304</ele>
        <time>2021-05-09T18:47:40.812Z</time>
      </trkpt>
      <trkpt lat="50.56807" lon="3.47489">
        <ele>44.138581</ele>
        <time>2021-05-09T18:47:56.575Z</time>
      </trkpt>
      <trkpt lat="50.56812" lon="3.47507">
        <ele>44.259188</ele>
        <time>2021-05-09T18:47:58.821Z</time>
      </trkpt>
      <trkpt lat="50.56815" lon="3.47518">
        <ele>44.337967</ele>
        <time>2021-05-09T18:48:00.206Z</time>
      </trkpt>
      <trkpt lat="50.5682" lon="3.47528">
        <ele>44.417319</ele>
        <time>2021-05-09T18:48:02.024Z</time>
      </trkpt>
      <trkpt lat="50.56838" lon="3.47544">
        <ele>44.619787</ele>
        <time>2021-05-09T18:48:05.823Z</time>
      </trkpt>
      <trkpt lat="50.56882" lon="3.47565">
        <ele>45.067026</ele>
        <time>2021-05-09T18:48:14.505Z</time>
      </trkpt>
      <trkpt lat="50.569" lon="3.47571">
        <ele>45.247713</ele>
        <time>2021-05-09T18:48:18.193Z</time>
      </trkpt>
      <trkpt lat="50.56943" lon="3.476">
        <ele>45.668042</ele>
        <time>2021-05-09T18:48:26.820Z</time>
      </trkpt>
      <trkpt lat="50.56963" lon="3.47614">
        <ele>45.766962</ele>
        <time>2021-05-09T18:48:31.074Z</time>
      </trkpt>
      <trkpt lat="50.57008" lon="3.47669">
        <ele>46.027297</ele>
        <time>2021-05-09T18:48:40.764Z</time>
      </trkpt>
      <trkpt lat="50.57079" lon="3.47757">
        <ele>46.43445</ele>
        <time>2021-05-09T18:48:54.972Z</time>
      </trkpt>
      <trkpt lat="50.57106" lon="3.47799">
        <ele>46.550607</ele>
        <time>2021-05-09T18:49:00.684Z</time>
      </trkpt>
      <trkpt lat="50.57133" lon="3.47873">
        <ele>46.704954</ele>
        <time>2021-05-09T18:49:08.639Z</time>
      </trkpt>
      <trkpt lat="50.57171" lon="3.48065">
        <ele>47.322482</ele>
        <time>2021-05-09T18:49:30.122Z</time>
      </trkpt>
      <trkpt lat="50.57175" lon="3.4809">
        <ele>47.483193</ele>
        <time>2021-05-09T18:49:32.819Z</time>
      </trkpt>
      <trkpt lat="50.57179" lon="3.48099">
        <ele>47.55695</ele>
        <time>2021-05-09T18:49:34.486Z</time>
      </trkpt>
      <trkpt lat="50.57191" lon="3.48156">
        <ele>47.941365</ele>
        <time>2021-05-09T18:49:41.735Z</time>
      </trkpt>
      <trkpt lat="50.57235" lon="3.48362">
        <ele>49.149373</ele>
        <time>2021-05-09T18:50:09.492Z</time>
      </trkpt>
      <trkpt lat="50.5724" lon="3.48391">
        <ele>49.28218</ele>
        <time>2021-05-09T18:50:13.020Z</time>
      </trkpt>
      <trkpt lat="50.57246" lon="3.48417">
        <ele>49.403186</ele>
        <time>2021-05-09T18:50:15.992Z</time>
      </trkpt>
      <trkpt lat="50.57252" lon="3.48448">
        <ele>49.547396</ele>
        <time>2021-05-09T18:50:19.621Z</time>
      </trkpt>
      <trkpt lat="50.57263" lon="3.48501">
        <ele>49.795522</ele>
        <time>2021-05-09T18:50:25.436Z</time>
      </trkpt>
      <trkpt lat="50.57284" lon="3.48598">
        <ele>49.888013</ele>
        <time>2021-05-09T18:50:35.195Z</time>
      </trkpt>
      <trkpt lat="50.57308" lon="3.48672">
        <ele>49.686965</ele>
        <time>2021-05-09T18:50:42.356Z</time>
      </trkpt>
      <trkpt lat="50.57351" lon="3.48791">
        <ele>49.357216</ele>
        <time>2021-05-09T18:50:53.597Z</time>
      </trkpt>
      <trkpt lat="50.57355" lon="3.4881">
        <ele>49.306125</ele>
        <time>2021-05-09T18:50:55.280Z</time>
      </trkpt>
      <trkpt lat="50.57356" lon="3.48832">
        <ele>49.245965</ele>
        <time>2021-05-09T18:50:57.158Z</time>
      </trkpt>
      <trkpt lat="50.57371" lon="3.49041">
        <ele>48.676453</ele>
        <time>2021-05-09T18:51:15.282Z</time>
      </trkpt>
      <trkpt lat="50.57367" lon="3.4924">
        <ele>47.704843</ele>
        <time>2021-05-09T18:51:32.173Z</time>
      </trkpt>
      <trkpt lat="50.57353" lon="3.49349">
        <ele>47.092707</ele>
        <time>2021-05-09T18:51:40.652Z</time>
      </trkpt>
      <trkpt lat="50.57352" lon="3.49352">
        <ele>47.077583</ele>
        <time>2021-05-09T18:51:40.842Z</time>
      </trkpt>
      <trkpt lat="50.57345" lon="3.49402">
        <ele>46.658892</ele>
        <time>2021-05-09T18:51:44.692Z</time>
      </trkpt>
      <trkpt lat="50.57337" lon="3.49452">
        <ele>46.211083</ele>
        <time>2021-05-09T18:51:48.433Z</time>
      </trkpt>
      <trkpt lat="50.57327" lon="3.49498">
        <ele>45.780791</ele>
        <time>2021-05-09T18:51:52.000Z</time>
      </trkpt>
      <trkpt lat="50.57319" lon="3.49531">
        <ele>45.466643</ele>
        <time>2021-05-09T18:51:54.551Z</time>
      </trkpt>
      <trkpt lat="50.57284" lon="3.4967">
        <ele>44.470867</ele>
        <time>2021-05-09T18:52:05.646Z</time>
      </trkpt>
      <trkpt lat="50.57263" lon="3.49779">
        <ele>44.327581</ele>
        <time>2021-05-09T18:52:15.213Z</time>
      </trkpt>
      <trkpt lat="50.57228" lon="3.49855">
        <ele>44.207991</ele>
        <time>2021-05-09T18:52:24.905Z</time>
      </trkpt>
      <trkpt lat="50.57225" lon="3.49864">
        <ele>44.196509</ele>
        <time>2021-05-09T18:52:25.895Z</time>
      </trkpt>
      <trkpt lat="50.57206" lon="3.49931">
        <ele>44.638028</ele>
        <time>2021-05-09T18:52:34.594Z</time>
      </trkpt>
      <trkpt lat="50.57196" lon="3.49999">
        <ele>45.290635</ele>
        <time>2021-05-09T18:52:43.662Z</time>
      </trkpt>
      <trkpt lat="50.57192" lon="3.50024">
        <ele>45.531392</ele>
        <time>2021-05-09T18:52:47.113Z</time>
      </trkpt>
      <trkpt lat="50.57182" lon="3.50145">
        <ele>46.669708</ele>
        <time>2021-05-09T18:53:04.076Z</time>
      </trkpt>
      <trkpt lat="50.57156" lon="3.5045">
        <ele>50.313749</ele>
        <time>2021-05-09T18:53:48.488Z</time>
      </trkpt>
      <trkpt lat="50.57148" lon="3.50513">
        <ele>50.912917</ele>
        <time>2021-05-09T18:53:57.175Z</time>
      </trkpt>
      <trkpt lat="50.57134" lon="3.50564">
        <ele>51.440877</ele>
        <time>2021-05-09T18:54:04.592Z</time>
      </trkpt>
      <trkpt lat="50.57119" lon="3.50602">
        <ele>51.861199</ele>
        <time>2021-05-09T18:54:10.470Z</time>
      </trkpt>
      <trkpt lat="50.57116" lon="3.50608">
        <ele>51.93124</ele>
        <time>2021-05-09T18:54:11.394Z</time>
      </trkpt>
      <trkpt lat="50.57108" lon="3.50627">
        <ele>52.15418</ele>
        <time>2021-05-09T18:54:14.607Z</time>
      </trkpt>
      <trkpt lat="50.57049" lon="3.50764">
        <ele>53.452697</ele>
        <time>2021-05-09T18:54:35.321Z</time>
      </trkpt>
      <trkpt lat="50.57018" lon="3.50841">
        <ele>54.03491</ele>
        <time>2021-05-09T18:54:46.114Z</time>
      </trkpt>
      <trkpt lat="50.57006" lon="3.50892">
        <ele>54.385163</ele>
        <time>2021-05-09T18:54:52.336Z</time>
      </trkpt>
      <trkpt lat="50.5693" lon="3.51074">
        <ele>55.945602</ele>
        <time>2021-05-09T18:55:17.874Z</time>
      </trkpt>
      <trkpt lat="50.56911" lon="3.51128">
        <ele>56.405928</ele>
        <time>2021-05-09T18:55:25.511Z</time>
      </trkpt>
      <trkpt lat="50.56841" lon="3.51469">
        <ele>60.295212</ele>
        <time>2021-05-09T18:56:16.060Z</time>
      </trkpt>
      <trkpt lat="50.56739" lon="3.51749">
        <ele>63.36536</ele>
        <time>2021-05-09T18:57:01.756Z</time>
      </trkpt>
      <trkpt lat="50.56716" lon="3.5185">
        <ele>63.50251</ele>
        <time>2021-05-09T18:57:13.311Z</time>
      </trkpt>
      <trkpt lat="50.56698" lon="3.5189">
        <ele>63.564233</ele>
        <time>2021-05-09T18:57:17.511Z</time>
      </trkpt>
      <trkpt lat="50.56657" lon="3.51941">
        <ele>63.410875</ele>
        <time>2021-05-09T18:57:23.863Z</time>
      </trkpt>
      <trkpt lat="50.5662" lon="3.51987">
        <ele>62.26346</ele>
        <time>2021-05-09T18:57:29.110Z</time>
      </trkpt>
      <trkpt lat="50.56475" lon="3.52163">
        <ele>57.615459</ele>
        <time>2021-05-09T18:57:47.997Z</time>
      </trkpt>
      <trkpt lat="50.56391" lon="3.52302">
        <ele>54.281809</ele>
        <time>2021-05-09T18:58:00.680Z</time>
      </trkpt>
      <trkpt lat="50.5638" lon="3.52322">
        <ele>53.964745</ele>
        <time>2021-05-09T18:58:02.388Z</time>
      </trkpt>
      <trkpt lat="50.56348" lon="3.52349">
        <ele>53.25389</ele>
        <time>2021-05-09T18:58:06.363Z</time>
      </trkpt>
      <trkpt lat="50.56327" lon="3.52359">
        <ele>52.834605</ele>
        <time>2021-05-09T18:58:08.791Z</time>
      </trkpt>
      <trkpt lat="50.56239" lon="3.52388">
        <ele>51.09904</ele>
        <time>2021-05-09T18:58:18.787Z</time>
      </trkpt>
      <trkpt lat="50.56199" lon="3.52401">
        <ele>50.533495</ele>
        <time>2021-05-09T18:58:23.728Z</time>
      </trkpt>
      <trkpt lat="50.56156" lon="3.52421">
        <ele>50.025307</ele>
        <time>2021-05-09T18:58:29.207Z</time>
      </trkpt>
      <trkpt lat="50.56116" lon="3.5246">
        <ele>49.502066</ele>
        <time>2021-05-09T18:58:34.850Z</time>
      </trkpt>
      <trkpt lat="50.55984" lon="3.52597">
        <ele>47.976912</ele>
        <time>2021-05-09T18:58:54.369Z</time>
      </trkpt>
      <trkpt lat="50.55856" lon="3.5273">
        <ele>46.756386</ele>
        <time>2021-05-09T18:59:13.757Z</time>
      </trkpt>
      <trkpt lat="50.5581" lon="3.52787">
        <ele>46.341089</ele>
        <time>2021-05-09T18:59:21.224Z</time>
      </trkpt>
      <trkpt lat="50.55777" lon="3.52837">
        <ele>46.019543</ele>
        <time>2021-05-09T18:59:27.069Z</time>
      </trkpt>
      <trkpt lat="50.55743" lon="3.52884">
        <ele>45.825783</ele>
        <time>2021-05-09T18:59:33.005Z</time>
      </trkpt>
      <trkpt lat="50.55682" lon="3.52957">
        <ele>45.519427</ele>
        <time>2021-05-09T18:59:43.294Z</time>
      </trkpt>
      <trkpt lat="50.55639" lon="3.5301">
        <ele>45.298475</ele>
        <time>2021-05-09T18:59:50.947Z</time>
      </trkpt>
      <trkpt lat="50.55591" lon="3.53067">
        <ele>45.322515</ele>
        <time>2021-05-09T18:59:59.636Z</time>
      </trkpt>
      <trkpt lat="50.5552" lon="3.53134">
        <ele>45.404658</ele>
        <time>2021-05-09T19:00:12.148Z</time>
      </trkpt>
      <trkpt lat="50.55504" lon="3.53147">
        <ele>45.422309</ele>
        <time>2021-05-09T19:00:14.896Z</time>
      </trkpt>
      <trkpt lat="50.55494" lon="3.53155">
        <ele>45.434272</ele>
        <time>2021-05-09T19:00:16.712Z</time>
      </trkpt>
      <trkpt lat="50.5548" lon="3.53169">
        <ele>45.46186</ele>
        <time>2021-05-09T19:00:19.262Z</time>
      </trkpt>
      <trkpt lat="50.55475" lon="3.53174">
        <ele>45.517898</ele>
        <time>2021-05-09T19:00:20.275Z</time>
      </trkpt>
      <trkpt lat="50.55477" lon="3.53191">
        <ele>45.614406</ele>
        <time>2021-05-09T19:00:22.080Z</time>
      </trkpt>
      <trkpt lat="50.5545" lon="3.53366">
        <ele>46.645909</ele>
        <time>2021-05-09T19:00:43.425Z</time>
      </trkpt>
      <trkpt lat="50.55444" lon="3.53394">
        <ele>46.814982</ele>
        <time>2021-05-09T19:00:47.206Z</time>
      </trkpt>
      <trkpt lat="50.55435" lon="3.53459">
        <ele>47.236982</ele>
        <time>2021-05-09T19:00:55.526Z</time>
      </trkpt>
      <trkpt lat="50.55371" lon="3.53457">
        <ele>48.016091</ele>
        <time>2021-05-09T19:01:08.005Z</time>
      </trkpt>
      <trkpt lat="50.5537" lon="3.53457">
        <ele>48.038695</ele>
        <time>2021-05-09T19:01:08.636Z</time>
      </trkpt>
      <trkpt lat="50.55336" lon="3.53445">
        <ele>48.459411</ele>
        <time>2021-05-09T19:01:15.599Z</time>
      </trkpt>
      <trkpt lat="50.55328" lon="3.53442">
        <ele>48.553036</ele>
        <time>2021-05-09T19:01:17.444Z</time>
      </trkpt>
      <trkpt lat="50.55297" lon="3.53429">
        <ele>48.946541</ele>
        <time>2021-05-09T19:01:23.962Z</time>
      </trkpt>
      <trkpt lat="50.55253" lon="3.53409">
        <ele>49.429941</ele>
        <time>2021-05-09T19:01:32.351Z</time>
      </trkpt>
      <trkpt lat="50.55238" lon="3.53401">
        <ele>49.567027</ele>
        <time>2021-05-09T19:01:35.112Z</time>
      </trkpt>
      <trkpt lat="50.55216" lon="3.53413">
        <ele>49.762281</ele>
        <time>2021-05-09T19:01:39.323Z</time>
      </trkpt>
      <trkpt lat="50.55192" lon="3.53434">
        <ele>50.000415</ele>
        <time>2021-05-09T19:01:44.356Z</time>
      </trkpt>
      <trkpt lat="50.55129" lon="3.53585">
        <ele>50.908593</ele>
        <time>2021-05-09T19:02:05.077Z</time>
      </trkpt>
      <trkpt lat="50.55114" lon="3.53594">
        <ele>50.992083</ele>
        <time>2021-05-09T19:02:07.744Z</time>
      </trkpt>
      <trkpt lat="50.55102" lon="3.53608">
        <ele>51.066367</ele>
        <time>2021-05-09T19:02:10.360Z</time>
      </trkpt>
      <trkpt lat="50.55058" lon="3.5369">
        <ele>51.420463</ele>
        <time>2021-05-09T19:02:21.956Z</time>
      </trkpt>
      <trkpt lat="50.55033" lon="3.53709">
        <ele>51.563538</ele>
        <time>2021-05-09T19:02:26.494Z</time>
      </trkpt>
      <trkpt lat="50.54964" lon="3.53741">
        <ele>51.87764</ele>
        <time>2021-05-09T19:02:38.256Z</time>
      </trkpt>
      <trkpt lat="50.54937" lon="3.53764">
        <ele>51.991236</ele>
        <time>2021-05-09T19:02:43.246Z</time>
      </trkpt>
      <trkpt lat="50.54915" lon="3.53791">
        <ele>52.093583</ele>
        <time>2021-05-09T19:02:47.718Z</time>
      </trkpt>
      <trkpt lat="50.5488" lon="3.53851">
        <ele>52.282087</ele>
        <time>2021-05-09T19:02:55.885Z</time>
      </trkpt>
      <trkpt lat="50.54853" lon="3.53884">
        <ele>52.405283</ele>
        <time>2021-05-09T19:03:01.439Z</time>
      </trkpt>
      <trkpt lat="50.54829" lon="3.53899">
        <ele>52.488716</ele>
        <time>2021-05-09T19:03:05.922Z</time>
      </trkpt>
      <trkpt lat="50.54803" lon="3.53902">
        <ele>52.572298</ele>
        <time>2021-05-09T19:03:10.470Z</time>
      </trkpt>
      <trkpt lat="50.54777" lon="3.53894">
        <ele>52.657834</ele>
        <time>2021-05-09T19:03:15.400Z</time>
      </trkpt>
      <trkpt lat="50.54703" lon="3.5386">
        <ele>52.903498</ele>
        <time>2021-05-09T19:03:27.752Z</time>
      </trkpt>
      <trkpt lat="50.54624" lon="3.53825">
        <ele>52.330836</ele>
        <time>2021-05-09T19:03:38.637Z</time>
      </trkpt>
      <trkpt lat="50.54596" lon="3.53811">
        <ele>52.025594</ele>
        <time>2021-05-09T19:03:42.175Z</time>
      </trkpt>
      <trkpt lat="50.5453" lon="3.53779">
        <ele>51.321317</ele>
        <time>2021-05-09T19:03:50.360Z</time>
      </trkpt>
      <trkpt lat="50.545" lon="3.53765">
        <ele>50.966997</ele>
        <time>2021-05-09T19:03:53.855Z</time>
      </trkpt>
      <trkpt lat="50.54467" lon="3.53734">
        <ele>50.448841</ele>
        <time>2021-05-09T19:03:58.177Z</time>
      </trkpt>
      <trkpt lat="50.54459" lon="3.53725">
        <ele>50.327639</ele>
        <time>2021-05-09T19:03:59.176Z</time>
      </trkpt>
      <trkpt lat="50.54349" lon="3.53863">
        <ele>48.604675</ele>
        <time>2021-05-09T19:04:23.084Z</time>
      </trkpt>
      <trkpt lat="50.54326" lon="3.53894">
        <ele>48.421271</ele>
        <time>2021-05-09T19:04:28.667Z</time>
      </trkpt>
      <trkpt lat="50.5428" lon="3.53977">
        <ele>47.999185</ele>
        <time>2021-05-09T19:04:41.609Z</time>
      </trkpt>
      <trkpt lat="50.54188" lon="3.54225">
        <ele>47.519649</ele>
        <time>2021-05-09T19:05:16.755Z</time>
      </trkpt>
      <trkpt lat="50.54117" lon="3.54366">
        <ele>47.476565</ele>
        <time>2021-05-09T19:05:41.050Z</time>
      </trkpt>
      <trkpt lat="50.54093" lon="3.54426">
        <ele>47.487724</ele>
        <time>2021-05-09T19:05:50.802Z</time>
      </trkpt>
      <trkpt lat="50.54011" lon="3.54358">
        <ele>47.306933</ele>
        <time>2021-05-09T19:06:09.065Z</time>
      </trkpt>
      <trkpt lat="50.53985" lon="3.54339">
        <ele>46.965171</ele>
        <time>2021-05-09T19:06:14.214Z</time>
      </trkpt>
      <trkpt lat="50.53958" lon="3.54335">
        <ele>46.637973</ele>
        <time>2021-05-09T19:06:18.958Z</time>
      </trkpt>
      <trkpt lat="50.53932" lon="3.54346">
        <ele>46.318629</ele>
        <time>2021-05-09T19:06:23.494Z</time>
      </trkpt>
      <trkpt lat="50.53806" lon="3.54383">
        <ele>44.549444</ele>
        <time>2021-05-09T19:06:44.147Z</time>
      </trkpt>
      <trkpt lat="50.53702" lon="3.54414">
        <ele>42.776048</ele>
        <time>2021-05-09T19:07:00.986Z</time>
      </trkpt>
      <trkpt lat="50.53683" lon="3.5442">
        <ele>42.450708</ele>
        <time>2021-05-09T19:07:04.164Z</time>
      </trkpt>
      <trkpt lat="50.53548" lon="3.54558">
        <ele>40.602185</ele>
        <time>2021-05-09T19:07:31.848Z</time>
      </trkpt>
      <trkpt lat="50.53484" lon="3.5462">
        <ele>39.886393</ele>
        <time>2021-05-09T19:07:45.088Z</time>
      </trkpt>
      <trkpt lat="50.53472" lon="3.54636">
        <ele>39.752074</ele>
        <time>2021-05-09T19:07:47.794Z</time>
      </trkpt>
      <trkpt lat="50.53432" lon="3.54692">
        <ele>39.285839</ele>
        <time>2021-05-09T19:07:57.188Z</time>
      </trkpt>
      <trkpt lat="50.53327" lon="3.54795">
        <ele>38.359592</ele>
        <time>2021-05-09T19:08:19.349Z</time>
      </trkpt>
      <trkpt lat="50.53323" lon="3.54801">
        <ele>38.321499</ele>
        <time>2021-05-09T19:08:20.321Z</time>
      </trkpt>
      <trkpt lat="50.53301" lon="3.54774">
        <ele>38.146127</ele>
        <time>2021-05-09T19:08:24.110Z</time>
      </trkpt>
      <trkpt lat="50.53279" lon="3.54746">
        <ele>37.962472</ele>
        <time>2021-05-09T19:08:27.929Z</time>
      </trkpt>
      <trkpt lat="50.53206" lon="3.54654">
        <ele>37.331304</ele>
        <time>2021-05-09T19:08:39.904Z</time>
      </trkpt>
      <trkpt lat="50.53168" lon="3.54621">
        <ele>37.01572</ele>
        <time>2021-05-09T19:08:45.770Z</time>
      </trkpt>
      <trkpt lat="50.53153" lon="3.54615">
        <ele>36.905873</ele>
        <time>2021-05-09T19:08:47.830Z</time>
      </trkpt>
      <trkpt lat="50.53141" lon="3.54615">
        <ele>36.815887</ele>
        <time>2021-05-09T19:08:49.344Z</time>
      </trkpt>
      <trkpt lat="50.52867" lon="3.54625">
        <ele>34.333738</ele>
        <time>2021-05-09T19:09:22.922Z</time>
      </trkpt>
      <trkpt lat="50.52843" lon="3.54632">
        <ele>34.104366</ele>
        <time>2021-05-09T19:09:25.952Z</time>
      </trkpt>
      <trkpt lat="50.5282" lon="3.54642">
        <ele>33.883854</ele>
        <time>2021-05-09T19:09:28.915Z</time>
      </trkpt>
      <trkpt lat="50.52656" lon="3.54715">
        <ele>32.096301</ele>
        <time>2021-05-09T19:09:49.998Z</time>
      </trkpt>
      <trkpt lat="50.52627" lon="3.5473">
        <ele>31.70272</ele>
        <time>2021-05-09T19:09:53.773Z</time>
      </trkpt>
      <trkpt lat="50.52558" lon="3.54762">
        <ele>30.79521</ele>
        <time>2021-05-09T19:10:02.042Z</time>
      </trkpt>
      <trkpt lat="50.52511" lon="3.54785">
        <ele>29.958928</ele>
        <time>2021-05-09T19:10:07.532Z</time>
      </trkpt>
      <trkpt lat="50.52472" lon="3.54812">
        <ele>29.142391</ele>
        <time>2021-05-09T19:10:12.236Z</time>
      </trkpt>
      <trkpt lat="50.52449" lon="3.54833">
        <ele>28.631691</ele>
        <time>2021-05-09T19:10:15.142Z</time>
      </trkpt>
      <trkpt lat="50.52381" lon="3.54892">
        <ele>27.155258</ele>
        <time>2021-05-09T19:10:23.790Z</time>
      </trkpt>
      <trkpt lat="50.52356" lon="3.54915">
        <ele>26.776546</ele>
        <time>2021-05-09T19:10:26.952Z</time>
      </trkpt>
      <trkpt lat="50.52327" lon="3.54942">
        <ele>26.322466</ele>
        <time>2021-05-09T19:10:30.759Z</time>
      </trkpt>
      <trkpt lat="50.52203" lon="3.55055">
        <ele>24.603924</ele>
        <time>2021-05-09T19:10:48.008Z</time>
      </trkpt>
      <trkpt lat="50.52182" lon="3.55054">
        <ele>24.47285</ele>
        <time>2021-05-09T19:10:50.748Z</time>
      </trkpt>
      <trkpt lat="50.52122" lon="3.54992">
        <ele>24.037409</ele>
        <time>2021-05-09T19:11:00.193Z</time>
      </trkpt>
      <trkpt lat="50.5204" lon="3.54909">
        <ele>23.550454</ele>
        <time>2021-05-09T19:11:13.466Z</time>
      </trkpt>
      <trkpt lat="50.51991" lon="3.54901">
        <ele>23.388835</ele>
        <time>2021-05-09T19:11:20.348Z</time>
      </trkpt>
      <trkpt lat="50.5198" lon="3.54901">
        <ele>23.353707</ele>
        <time>2021-05-09T19:11:21.881Z</time>
      </trkpt>
      <trkpt lat="50.51967" lon="3.54896">
        <ele>23.30736</ele>
        <time>2021-05-09T19:11:24.496Z</time>
      </trkpt>
      <trkpt lat="50.51854" lon="3.54801">
        <ele>22.811286</ele>
        <time>2021-05-09T19:11:48.757Z</time>
      </trkpt>
      <trkpt lat="50.51774" lon="3.54691">
        <ele>22.322081</ele>
        <time>2021-05-09T19:12:08.450Z</time>
      </trkpt>
      <trkpt lat="50.51757" lon="3.54662">
        <ele>22.219775</ele>
        <time>2021-05-09T19:12:13.139Z</time>
      </trkpt>
      <trkpt lat="50.51742" lon="3.54636">
        <ele>22.146754</ele>
        <time>2021-05-09T19:12:17.180Z</time>
      </trkpt>
      <trkpt lat="50.5169" lon="3.54538">
        <ele>21.874778</ele>
        <time>2021-05-09T19:12:32.392Z</time>
      </trkpt>
      <trkpt lat="50.51634" lon="3.54361">
        <ele>21.674722</ele>
        <time>2021-05-09T19:12:57.415Z</time>
      </trkpt>
      <trkpt lat="50.51631" lon="3.54334">
        <ele>21.680035</ele>
        <time>2021-05-09T19:13:00.975Z</time>
      </trkpt>
      <trkpt lat="50.51599" lon="3.54347">
        <ele>21.690169</ele>
        <time>2021-05-09T19:13:07.633Z</time>
      </trkpt>
      <trkpt lat="50.51537" lon="3.54369">
        <ele>21.709688</ele>
        <time>2021-05-09T19:13:20.557Z</time>
      </trkpt>
      <trkpt lat="50.51471" lon="3.54371">
        <ele>22.014855</ele>
        <time>2021-05-09T19:13:35.229Z</time>
      </trkpt>
      <trkpt lat="50.51468" lon="3.54371">
        <ele>22.027979</ele>
        <time>2021-05-09T19:13:35.646Z</time>
      </trkpt>
      <trkpt lat="50.51464" lon="3.54371">
        <ele>22.047637</ele>
        <time>2021-05-09T19:13:36.524Z</time>
      </trkpt>
      <trkpt lat="50.51449" lon="3.54382">
        <ele>22.128525</ele>
        <time>2021-05-09T19:13:40.341Z</time>
      </trkpt>
      <trkpt lat="50.51438" lon="3.544">
        <ele>22.211016</ele>
        <time>2021-05-09T19:13:43.754Z</time>
      </trkpt>
      <trkpt lat="50.5142" lon="3.54441">
        <ele>22.371531</ele>
        <time>2021-05-09T19:13:51.105Z</time>
      </trkpt>
      <trkpt lat="50.51404" lon="3.5445">
        <ele>22.45697</ele>
        <time>2021-05-09T19:13:54.957Z</time>
      </trkpt>
      <trkpt lat="50.51393" lon="3.54446">
        <ele>22.513247</ele>
        <time>2021-05-09T19:13:57.424Z</time>
      </trkpt>
      <trkpt lat="50.51384" lon="3.54441">
        <ele>22.563145</ele>
        <time>2021-05-09T19:13:59.644Z</time>
      </trkpt>
      <trkpt lat="50.51377" lon="3.54437">
        <ele>22.601379</ele>
        <time>2021-05-09T19:14:01.223Z</time>
      </trkpt>
      <trkpt lat="50.5137" lon="3.54441">
        <ele>22.669053</ele>
        <time>2021-05-09T19:14:03.113Z</time>
      </trkpt>
      <trkpt lat="50.51343" lon="3.54467">
        <ele>23.106099</ele>
        <time>2021-05-09T19:14:10.489Z</time>
      </trkpt>
      <trkpt lat="50.51284" lon="3.54554">
        <ele>24.191986</ele>
        <time>2021-05-09T19:14:30.819Z</time>
      </trkpt>
      <trkpt lat="50.51201" lon="3.54686">
        <ele>26.069134</ele>
        <time>2021-05-09T19:15:03.810Z</time>
      </trkpt>
      <trkpt lat="50.51198" lon="3.54691">
        <ele>26.144327</ele>
        <time>2021-05-09T19:15:04.931Z</time>
      </trkpt>
      <trkpt lat="50.51163" lon="3.54738">
        <ele>27.011761</ele>
        <time>2021-05-09T19:15:18.167Z</time>
      </trkpt>
      <trkpt lat="50.51109" lon="3.548">
        <ele>28.256744</ele>
        <time>2021-05-09T19:15:36.770Z</time>
      </trkpt>
      <trkpt lat="50.51067" lon="3.54921">
        <ele>28.923194</ele>
        <time>2021-05-09T19:15:59.284Z</time>
      </trkpt>
      <trkpt lat="50.51033" lon="3.54967">
        <ele>29.226691</ele>
        <time>2021-05-09T19:16:09.174Z</time>
      </trkpt>
      <trkpt lat="50.50976" lon="3.55015">
        <ele>29.526087</ele>
        <time>2021-05-09T19:16:21.850Z</time>
      </trkpt>
      <trkpt lat="50.50923" lon="3.55037">
        <ele>29.150265</ele>
        <time>2021-05-09T19:16:31.956Z</time>
      </trkpt>
      <trkpt lat="50.50854" lon="3.55023">
        <ele>28.675894</ele>
        <time>2021-05-09T19:16:44.343Z</time>
      </trkpt>
      <trkpt lat="50.50846" lon="3.54977">
        <ele>28.467359</ele>
        <time>2021-05-09T19:16:48.172Z</time>
      </trkpt>
      <trkpt lat="50.50812" lon="3.54773">
        <ele>27.34954</ele>
        <time>2021-05-09T19:17:04.841Z</time>
      </trkpt>
      <trkpt lat="50.50809" lon="3.54738">
        <ele>27.156609</ele>
        <time>2021-05-09T19:17:07.657Z</time>
      </trkpt>
      <trkpt lat="50.50775" lon="3.54743">
        <ele>26.860238</ele>
        <time>2021-05-09T19:17:13.811Z</time>
      </trkpt>
      <trkpt lat="50.50756" lon="3.54746">
        <ele>26.751595</ele>
        <time>2021-05-09T19:17:17.106Z</time>
      </trkpt>
      <trkpt lat="50.50652" lon="3.54763">
        <ele>26.197679</ele>
        <time>2021-05-09T19:17:36.150Z</time>
      </trkpt>
      <trkpt lat="50.50611" lon="3.54773">
        <ele>25.983463</ele>
        <time>2021-05-09T19:17:43.843Z</time>
      </trkpt>
      <trkpt lat="50.50529" lon="3.54789">
        <ele>26.078061</ele>
        <time>2021-05-09T19:18:00.485Z</time>
      </trkpt>
      <trkpt lat="50.50425" lon="3.54758">
        <ele>26.400396</ele>
        <time>2021-05-09T19:18:24.105Z</time>
      </trkpt>
      <trkpt lat="50.50321" lon="3.54786">
        <ele>26.555663</ele>
        <time>2021-05-09T19:18:47.804Z</time>
      </trkpt>
      <trkpt lat="50.50302" lon="3.54793">
        <ele>26.580611</ele>
        <time>2021-05-09T19:18:52.073Z</time>
      </trkpt>
      <trkpt lat="50.50297" lon="3.54806">
        <ele>26.593437</ele>
        <time>2021-05-09T19:18:53.552Z</time>
      </trkpt>
      <trkpt lat="50.50278" lon="3.54825">
        <ele>26.622644</ele>
        <time>2021-05-09T19:18:57.110Z</time>
      </trkpt>
      <trkpt lat="50.50262" lon="3.5483">
        <ele>26.64284</ele>
        <time>2021-05-09T19:18:59.416Z</time>
      </trkpt>
      <trkpt lat="50.50089" lon="3.54839">
        <ele>24.832914</ele>
        <time>2021-05-09T19:19:20.448Z</time>
      </trkpt>
      <trkpt lat="50.50079" lon="3.54839">
        <ele>24.713943</ele>
        <time>2021-05-09T19:19:21.536Z</time>
      </trkpt>
      <trkpt lat="50.50066" lon="3.54839">
        <ele>24.572807</ele>
        <time>2021-05-09T19:19:22.895Z</time>
      </trkpt>
      <trkpt lat="50.50063" lon="3.54838">
        <ele>24.505357</ele>
        <time>2021-05-09T19:19:23.298Z</time>
      </trkpt>
      <trkpt lat="50.50054" lon="3.54837">
        <ele>24.330823</ele>
        <time>2021-05-09T19:19:24.222Z</time>
      </trkpt>
      <trkpt lat="50.5001" lon="3.54829">
        <ele>23.412487</ele>
        <time>2021-05-09T19:19:29.041Z</time>
      </trkpt>
      <trkpt lat="50.49999" lon="3.54826">
        <ele>23.188632</ele>
        <time>2021-05-09T19:19:30.250Z</time>
      </trkpt>
      <trkpt lat="50.49987" lon="3.54823">
        <ele>22.94918</ele>
        <time>2021-05-09T19:19:31.513Z</time>
      </trkpt>
      <trkpt lat="50.49943" lon="3.54814">
        <ele>22.0267</ele>
        <time>2021-05-09T19:19:36.312Z</time>
      </trkpt>
      <trkpt lat="50.49937" lon="3.54813">
        <ele>21.901704</ele>
        <time>2021-05-09T19:19:36.946Z</time>
      </trkpt>
      <trkpt lat="50.49914" lon="3.54813">
        <ele>21.441464</ele>
        <time>2021-05-09T19:19:39.434Z</time>
      </trkpt>
      <trkpt lat="50.49907" lon="3.54814">
        <ele>21.288121</ele>
        <time>2021-05-09T19:19:40.222Z</time>
      </trkpt>
      <trkpt lat="50.49879" lon="3.54829">
        <ele>20.814763</ele>
        <time>2021-05-09T19:19:43.547Z</time>
      </trkpt>
      <trkpt lat="50.49871" lon="3.54834">
        <ele>20.742807</ele>
        <time>2021-05-09T19:19:44.551Z</time>
      </trkpt>
      <trkpt lat="50.49864" lon="3.54838">
        <ele>20.691903</ele>
        <time>2021-05-09T19:19:45.328Z</time>
      </trkpt>
      <trkpt lat="50.49851" lon="3.54847">
        <ele>20.579833</ele>
        <time>2021-05-09T19:19:47.005Z</time>
      </trkpt>
      <trkpt lat="50.49797" lon="3.5488">
        <ele>20.133053</ele>
        <time>2021-05-09T19:19:53.954Z</time>
      </trkpt>
      <trkpt lat="50.49764" lon="3.5489">
        <ele>19.868997</ele>
        <time>2021-05-09T19:19:58.417Z</time>
      </trkpt>
      <trkpt lat="50.49757" lon="3.54891">
        <ele>19.817969</ele>
        <time>2021-05-09T19:19:59.235Z</time>
      </trkpt>
      <trkpt lat="50.49752" lon="3.54891">
        <ele>19.781634</ele>
        <time>2021-05-09T19:19:59.935Z</time>
      </trkpt>
      <trkpt lat="50.497" lon="3.54892">
        <ele>19.674876</ele>
        <time>2021-05-09T19:20:08.385Z</time>
      </trkpt>
      <trkpt lat="50.49671" lon="3.54894">
        <ele>19.986117</ele>
        <time>2021-05-09T19:20:13.416Z</time>
      </trkpt>
      <trkpt lat="50.49667" lon="3.54894">
        <ele>20.027791</ele>
        <time>2021-05-09T19:20:14.286Z</time>
      </trkpt>
      <trkpt lat="50.49643" lon="3.54903">
        <ele>20.306415</ele>
        <time>2021-05-09T19:20:19.013Z</time>
      </trkpt>
      <trkpt lat="50.49616" lon="3.54924">
        <ele>20.636005</ele>
        <time>2021-05-09T19:20:25.127Z</time>
      </trkpt>
      <trkpt lat="50.49489" lon="3.55026">
        <ele>22.235022</ele>
        <time>2021-05-09T19:20:55.180Z</time>
      </trkpt>
      <trkpt lat="50.49457" lon="3.54883">
        <ele>23.352059</ele>
        <time>2021-05-09T19:21:18.972Z</time>
      </trkpt>
      <trkpt lat="50.49429" lon="3.54769">
        <ele>23.629958</ele>
        <time>2021-05-09T19:21:35.991Z</time>
      </trkpt>
      <trkpt lat="50.49387" lon="3.54656">
        <ele>23.748874</ele>
        <time>2021-05-09T19:21:52.852Z</time>
      </trkpt>
      <trkpt lat="50.49366" lon="3.54606">
        <ele>23.796638</ele>
        <time>2021-05-09T19:22:00.208Z</time>
      </trkpt>
      <trkpt lat="50.49335" lon="3.54532">
        <ele>23.723874</ele>
        <time>2021-05-09T19:22:11.240Z</time>
      </trkpt>
      <trkpt lat="50.49317" lon="3.54488">
        <ele>23.681013</ele>
        <time>2021-05-09T19:22:17.698Z</time>
      </trkpt>
      <trkpt lat="50.49184" lon="3.54119">
        <ele>23.750659</ele>
        <time>2021-05-09T19:23:11.911Z</time>
      </trkpt>
      <trkpt lat="50.49111" lon="3.53888">
        <ele>25.293268</ele>
        <time>2021-05-09T19:23:52.000Z</time>
      </trkpt>
      <trkpt lat="50.49106" lon="3.53882">
        <ele>25.35069</ele>
        <time>2021-05-09T19:23:53.645Z</time>
      </trkpt>
      <trkpt lat="50.49099" lon="3.53882">
        <ele>25.41835</ele>
        <time>2021-05-09T19:23:55.745Z</time>
      </trkpt>
      <trkpt lat="50.49014" lon="3.53961">
        <ele>26.154253</ele>
        <time>2021-05-09T19:24:19.823Z</time>
      </trkpt>
      <trkpt lat="50.48996" lon="3.53963">
        <ele>26.288402</ele>
        <time>2021-05-09T19:24:24.091Z</time>
      </trkpt>
      <trkpt lat="50.4899" lon="3.53959">
        <ele>26.338388</ele>
        <time>2021-05-09T19:24:25.832Z</time>
      </trkpt>
      <trkpt lat="50.48886" lon="3.53823">
        <ele>26.629183</ele>
        <time>2021-05-09T19:24:53.700Z</time>
      </trkpt>
      <trkpt lat="50.48748" lon="3.53576">
        <ele>25.87697</ele>
        <time>2021-05-09T19:25:33.063Z</time>
      </trkpt>
      <trkpt lat="50.48727" lon="3.53526">
        <ele>25.668424</ele>
        <time>2021-05-09T19:25:40.056Z</time>
      </trkpt>
      <trkpt lat="50.487" lon="3.53441">
        <ele>25.250053</ele>
        <time>2021-05-09T19:25:50.962Z</time>
      </trkpt>
      <trkpt lat="50.48691" lon="3.53411">
        <ele>25.066769</ele>
        <time>2021-05-09T19:25:54.673Z</time>
      </trkpt>
      <trkpt lat="50.4867" lon="3.53368">
        <ele>24.765739</ele>
        <time>2021-05-09T19:26:00.716Z</time>
      </trkpt>
      <trkpt lat="50.48561" lon="3.53127">
        <ele>23.412131</ele>
        <time>2021-05-09T19:26:33.734Z</time>
      </trkpt>
      <trkpt lat="50.48488" lon="3.52966">
        <ele>22.907098</ele>
        <time>2021-05-09T19:26:58.133Z</time>
      </trkpt>
      <trkpt lat="50.48475" lon="3.52943">
        <ele>22.905475</ele>
        <time>2021-05-09T19:27:02.256Z</time>
      </trkpt>
      <trkpt lat="50.48419" lon="3.52886">
        <ele>22.900174</ele>
        <time>2021-05-09T19:27:15.965Z</time>
      </trkpt>
      <trkpt lat="50.48415" lon="3.52878">
        <ele>22.899659</ele>
        <time>2021-05-09T19:27:17.295Z</time>
      </trkpt>
      <trkpt lat="50.48323" lon="3.52606">
        <ele>22.800003</ele>
        <time>2021-05-09T19:27:57.158Z</time>
      </trkpt>
      <trkpt lat="50.48253" lon="3.52479">
        <ele>22.45288</ele>
        <time>2021-05-09T19:28:17.598Z</time>
      </trkpt>
      <trkpt lat="50.48239" lon="3.5245">
        <ele>22.345948</ele>
        <time>2021-05-09T19:28:22.059Z</time>
      </trkpt>
      <trkpt lat="50.48221" lon="3.52418">
        <ele>22.224177</ele>
        <time>2021-05-09T19:28:27.047Z</time>
      </trkpt>
      <trkpt lat="50.48137" lon="3.52251">
        <ele>21.51188</ele>
        <time>2021-05-09T19:28:51.674Z</time>
      </trkpt>
      <trkpt lat="50.48009" lon="3.52064">
        <ele>20.613455</ele>
        <time>2021-05-09T19:29:23.920Z</time>
      </trkpt>
      <trkpt lat="50.47853" lon="3.51812">
        <ele>19.694516</ele>
        <time>2021-05-09T19:30:06.853Z</time>
      </trkpt>
      <trkpt lat="50.47839" lon="3.51848">
        <ele>19.587404</ele>
        <time>2021-05-09T19:30:11.751Z</time>
      </trkpt>
      <trkpt lat="50.47853" lon="3.51812">
        <ele>19.480292</ele>
        <time>2021-05-09T19:30:16.599Z</time>
      </trkpt>
      <trkpt lat="50.47806" lon="3.51737">
        <ele>19.078551</ele>
        <time>2021-05-09T19:30:28.679Z</time>
      </trkpt>
      <trkpt lat="50.4779" lon="3.51711">
        <ele>18.928009</ele>
        <time>2021-05-09T19:30:33.048Z</time>
      </trkpt>
      <trkpt lat="50.47782" lon="3.51698">
        <ele>18.853514</ele>
        <time>2021-05-09T19:30:35.103Z</time>
      </trkpt>
      <trkpt lat="50.47783" lon="3.51663">
        <ele>18.708881</ele>
        <time>2021-05-09T19:30:38.087Z</time>
      </trkpt>
      <trkpt lat="50.47784" lon="3.5165">
        <ele>18.656507</ele>
        <time>2021-05-09T19:30:39.124Z</time>
      </trkpt>
      <trkpt lat="50.47784" lon="3.51643">
        <ele>18.627964</ele>
        <time>2021-05-09T19:30:39.675Z</time>
      </trkpt>
      <trkpt lat="50.47785" lon="3.51628">
        <ele>18.566074</ele>
        <time>2021-05-09T19:30:40.948Z</time>
      </trkpt>
      <trkpt lat="50.47824" lon="3.51488">
        <ele>17.986152</ele>
        <time>2021-05-09T19:30:53.480Z</time>
      </trkpt>
      <trkpt lat="50.47858" lon="3.51324">
        <ele>17.372915</ele>
        <time>2021-05-09T19:31:08.036Z</time>
      </trkpt>
      <trkpt lat="50.47952" lon="3.51044">
        <ele>16.191174</ele>
        <time>2021-05-09T19:31:34.356Z</time>
      </trkpt>
      <trkpt lat="50.47986" lon="3.50967">
        <ele>15.861145</ele>
        <time>2021-05-09T19:31:42.214Z</time>
      </trkpt>
      <trkpt lat="50.48047" lon="3.50871">
        <ele>15.385218</ele>
        <time>2021-05-09T19:31:53.617Z</time>
      </trkpt>
      <trkpt lat="50.48087" lon="3.50718">
        <ele>14.896059</ele>
        <time>2021-05-09T19:32:07.544Z</time>
      </trkpt>
      <trkpt lat="50.48134" lon="3.50632">
        <ele>14.586175</ele>
        <time>2021-05-09T19:32:17.241Z</time>
      </trkpt>
      <trkpt lat="50.48156" lon="3.50601">
        <ele>14.457764</ele>
        <time>2021-05-09T19:32:21.307Z</time>
      </trkpt>
      <trkpt lat="50.48195" lon="3.50547">
        <ele>14.473208</ele>
        <time>2021-05-09T19:32:28.615Z</time>
      </trkpt>
      <trkpt lat="50.48334" lon="3.50262">
        <ele>14.873045</ele>
        <time>2021-05-09T19:33:03.984Z</time>
      </trkpt>
      <trkpt lat="50.48334" lon="3.50155">
        <ele>15.109218</ele>
        <time>2021-05-09T19:33:15.583Z</time>
      </trkpt>
      <trkpt lat="50.48314" lon="3.50065">
        <ele>15.423088</ele>
        <time>2021-05-09T19:33:26.430Z</time>
      </trkpt>
      <trkpt lat="50.48317" lon="3.50036">
        <ele>15.527308</ele>
        <time>2021-05-09T19:33:29.809Z</time>
      </trkpt>
      <trkpt lat="50.48417" lon="3.49873">
        <ele>16.135447</ele>
        <time>2021-05-09T19:33:54.049Z</time>
      </trkpt>
      <trkpt lat="50.48456" lon="3.4981">
        <ele>16.099272</ele>
        <time>2021-05-09T19:34:02.154Z</time>
      </trkpt>
      <trkpt lat="50.48464" lon="3.49803">
        <ele>16.093177</ele>
        <time>2021-05-09T19:34:03.488Z</time>
      </trkpt>
      <trkpt lat="50.4847" lon="3.498">
        <ele>16.088936</ele>
        <time>2021-05-09T19:34:04.446Z</time>
      </trkpt>
      <trkpt lat="50.48475" lon="3.49799">
        <ele>16.085452</ele>
        <time>2021-05-09T19:34:05.213Z</time>
      </trkpt>
      <trkpt lat="50.48497" lon="3.49796">
        <ele>16.071355</ele>
        <time>2021-05-09T19:34:08.157Z</time>
      </trkpt>
      <trkpt lat="50.4851" lon="3.49792">
        <ele>16.062516</ele>
        <time>2021-05-09T19:34:10.095Z</time>
      </trkpt>
      <trkpt lat="50.48526" lon="3.49777">
        <ele>16.050579</ele>
        <time>2021-05-09T19:34:12.566Z</time>
      </trkpt>
      <trkpt lat="50.4857" lon="3.49704">
        <ele>15.94766</ele>
        <time>2021-05-09T19:34:21.211Z</time>
      </trkpt>
      <trkpt lat="50.48604" lon="3.49668">
        <ele>15.865171</ele>
        <time>2021-05-09T19:34:26.694Z</time>
      </trkpt>
      <trkpt lat="50.48628" lon="3.49654">
        <ele>15.813304</ele>
        <time>2021-05-09T19:34:30.396Z</time>
      </trkpt>
      <trkpt lat="50.48684" lon="3.49642">
        <ele>15.698672</ele>
        <time>2021-05-09T19:34:39.015Z</time>
      </trkpt>
      <trkpt lat="50.48731" lon="3.4961">
        <ele>15.726808</ele>
        <time>2021-05-09T19:34:46.632Z</time>
      </trkpt>
      <trkpt lat="50.48736" lon="3.49611">
        <ele>15.73391</ele>
        <time>2021-05-09T19:34:47.506Z</time>
      </trkpt>
      <trkpt lat="50.48765" lon="3.49649">
        <ele>15.779954</ele>
        <time>2021-05-09T19:34:53.023Z</time>
      </trkpt>
      <trkpt lat="50.48847" lon="3.49688">
        <ele>15.88645</ele>
        <time>2021-05-09T19:35:06.329Z</time>
      </trkpt>
      <trkpt lat="50.48861" lon="3.49706">
        <ele>15.920337</ele>
        <time>2021-05-09T19:35:09.227Z</time>
      </trkpt>
      <trkpt lat="50.4887" lon="3.49728">
        <ele>15.972001</ele>
        <time>2021-05-09T19:35:11.845Z</time>
      </trkpt>
      <trkpt lat="50.48879" lon="3.49766">
        <ele>16.047615</ele>
        <time>2021-05-09T19:35:15.860Z</time>
      </trkpt>
      <trkpt lat="50.48906" lon="3.49893">
        <ele>16.301878</ele>
        <time>2021-05-09T19:35:29.439Z</time>
      </trkpt>
      <trkpt lat="50.48908" lon="3.49897">
        <ele>16.312956</ele>
        <time>2021-05-09T19:35:29.996Z</time>
      </trkpt>
      <trkpt lat="50.48911" lon="3.49902">
        <ele>16.326233</ele>
        <time>2021-05-09T19:35:30.850Z</time>
      </trkpt>
      <trkpt lat="50.48914" lon="3.49904">
        <ele>16.337084</ele>
        <time>2021-05-09T19:35:31.360Z</time>
      </trkpt>
      <trkpt lat="50.48927" lon="3.49907">
        <ele>16.375499</ele>
        <time>2021-05-09T19:35:33.493Z</time>
      </trkpt>
      <trkpt lat="50.48934" lon="3.49909">
        <ele>16.397852</ele>
        <time>2021-05-09T19:35:34.690Z</time>
      </trkpt>
      <trkpt lat="50.4895" lon="3.49913">
        <ele>16.440825</ele>
        <time>2021-05-09T19:35:37.342Z</time>
      </trkpt>
      <trkpt lat="50.48953" lon="3.49914">
        <ele>16.443814</ele>
        <time>2021-05-09T19:35:37.929Z</time>
      </trkpt>
      <trkpt lat="50.49" lon="3.49921">
        <ele>16.491798</ele>
        <time>2021-05-09T19:35:45.705Z</time>
      </trkpt>
      <trkpt lat="50.49082" lon="3.49844">
        <ele>16.589123</ele>
        <time>2021-05-09T19:36:00.354Z</time>
      </trkpt>
      <trkpt lat="50.49094" lon="3.49838">
        <ele>16.602246</ele>
        <time>2021-05-09T19:36:02.144Z</time>
      </trkpt>
      <trkpt lat="50.49191" lon="3.49853">
        <ele>16.355943</ele>
        <time>2021-05-09T19:36:15.204Z</time>
      </trkpt>
      <trkpt lat="50.49196" lon="3.49853">
        <ele>16.336828</ele>
        <time>2021-05-09T19:36:15.937Z</time>
      </trkpt>
      <trkpt lat="50.49201" lon="3.49848">
        <ele>16.318103</ele>
        <time>2021-05-09T19:36:16.703Z</time>
      </trkpt>
      <trkpt lat="50.49208" lon="3.49841">
        <ele>16.288284</ele>
        <time>2021-05-09T19:36:17.815Z</time>
      </trkpt>
      <trkpt lat="50.49282" lon="3.49773">
        <ele>16.013431</ele>
        <time>2021-05-09T19:36:29.738Z</time>
      </trkpt>
      <trkpt lat="50.49284" lon="3.49771">
        <ele>16.01782</ele>
        <time>2021-05-09T19:36:30.017Z</time>
      </trkpt>
      <trkpt lat="50.49288" lon="3.49767">
        <ele>16.026393</ele>
        <time>2021-05-09T19:36:30.698Z</time>
      </trkpt>
      <trkpt lat="50.49308" lon="3.49756">
        <ele>16.063113</ele>
        <time>2021-05-09T19:36:33.716Z</time>
      </trkpt>
      <trkpt lat="50.49327" lon="3.49756">
        <ele>16.095062</ele>
        <time>2021-05-09T19:36:36.254Z</time>
      </trkpt>
      <trkpt lat="50.49356" lon="3.49781">
        <ele>16.152129</ele>
        <time>2021-05-09T19:36:41.096Z</time>
      </trkpt>
      <trkpt lat="50.4937" lon="3.49783">
        <ele>16.177104</ele>
        <time>2021-05-09T19:36:43.483Z</time>
      </trkpt>
      <trkpt lat="50.49442" lon="3.49791">
        <ele>16.301623</ele>
        <time>2021-05-09T19:36:55.530Z</time>
      </trkpt>
      <trkpt lat="50.49496" lon="3.49786">
        <ele>16.536647</ele>
        <time>2021-05-09T19:37:04.989Z</time>
      </trkpt>
      <trkpt lat="50.49546" lon="3.49865">
        <ele>16.882058</ele>
        <time>2021-05-09T19:37:17.084Z</time>
      </trkpt>
      <trkpt lat="50.49552" lon="3.49866">
        <ele>16.907851</ele>
        <time>2021-05-09T19:37:18.085Z</time>
      </trkpt>
      <trkpt lat="50.49561" lon="3.49862">
        <ele>16.956549</ele>
        <time>2021-05-09T19:37:19.780Z</time>
      </trkpt>
      <trkpt lat="50.49674" lon="3.49784">
        <ele>17.09367</ele>
        <time>2021-05-09T19:37:39.296Z</time>
      </trkpt>
      <trkpt lat="50.49786" lon="3.49689">
        <ele>16.840558</ele>
        <time>2021-05-09T19:37:56.543Z</time>
      </trkpt>
      <trkpt lat="50.4984" lon="3.49655">
        <ele>16.548676</ele>
        <time>2021-05-09T19:38:04.155Z</time>
      </trkpt>
      <trkpt lat="50.49868" lon="3.49638">
        <ele>16.399144</ele>
        <time>2021-05-09T19:38:08.060Z</time>
      </trkpt>
      <trkpt lat="50.49872" lon="3.49635">
        <ele>16.38069</ele>
        <time>2021-05-09T19:38:08.565Z</time>
      </trkpt>
      <trkpt lat="50.49871" lon="3.49622">
        <ele>16.338006</ele>
        <time>2021-05-09T19:38:10.072Z</time>
      </trkpt>
      <trkpt lat="50.49862" lon="3.49562">
        <ele>16.144237</ele>
        <time>2021-05-09T19:38:17.287Z</time>
      </trkpt>
      <trkpt lat="50.49838" lon="3.49458">
        <ele>15.993489</ele>
        <time>2021-05-09T19:38:30.595Z</time>
      </trkpt>
      <trkpt lat="50.49789" lon="3.49306">
        <ele>15.87212</ele>
        <time>2021-05-09T19:38:52.713Z</time>
      </trkpt>
      <trkpt lat="50.49759" lon="3.49189">
        <ele>15.940756</ele>
        <time>2021-05-09T19:39:09.452Z</time>
      </trkpt>
      <trkpt lat="50.49759" lon="3.49162">
        <ele>15.966674</ele>
        <time>2021-05-09T19:39:13.227Z</time>
      </trkpt>
      <trkpt lat="50.49779" lon="3.49135">
        <ele>16.006712</ele>
        <time>2021-05-09T19:39:18.684Z</time>
      </trkpt>
      <trkpt lat="50.49832" lon="3.49014">
        <ele>16.174179</ele>
        <time>2021-05-09T19:39:38.014Z</time>
      </trkpt>
      <trkpt lat="50.49846" lon="3.48993">
        <ele>16.237454</ele>
        <time>2021-05-09T19:39:42.312Z</time>
      </trkpt>
      <trkpt lat="50.49921" lon="3.48943">
        <ele>16.489666</ele>
        <time>2021-05-09T19:39:59.397Z</time>
      </trkpt>
      <trkpt lat="50.49924" lon="3.48927">
        <ele>16.524493</ele>
        <time>2021-05-09T19:40:01.828Z</time>
      </trkpt>
      <trkpt lat="50.49923" lon="3.48903">
        <ele>16.572447</ele>
        <time>2021-05-09T19:40:05.173Z</time>
      </trkpt>
      <trkpt lat="50.49893" lon="3.48803">
        <ele>16.74845</ele>
        <time>2021-05-09T19:40:20.926Z</time>
      </trkpt>
      <trkpt lat="50.49899" lon="3.48616">
        <ele>16.974447</ele>
        <time>2021-05-09T19:40:46.090Z</time>
      </trkpt>
      <trkpt lat="50.49899" lon="3.48579">
        <ele>17.019365</ele>
        <time>2021-05-09T19:40:50.893Z</time>
      </trkpt>
      <trkpt lat="50.49889" lon="3.48551">
        <ele>16.966308</ele>
        <time>2021-05-09T19:40:54.763Z</time>
      </trkpt>
      <trkpt lat="50.49838" lon="3.48467">
        <ele>16.734239</ele>
        <time>2021-05-09T19:41:08.966Z</time>
      </trkpt>
      <trkpt lat="50.49817" lon="3.48414">
        <ele>16.611715</ele>
        <time>2021-05-09T19:41:16.363Z</time>
      </trkpt>
      <trkpt lat="50.49798" lon="3.48218">
        <ele>16.373557</ele>
        <time>2021-05-09T19:41:40.044Z</time>
      </trkpt>
      <trkpt lat="50.49803" lon="3.48133">
        <ele>16.311246</ele>
        <time>2021-05-09T19:41:51.160Z</time>
      </trkpt>
      <trkpt lat="50.4982" lon="3.48069">
        <ele>16.260839</ele>
        <time>2021-05-09T19:42:00.325Z</time>
      </trkpt>
      <trkpt lat="50.4983" lon="3.47978">
        <ele>16.559915</ele>
        <time>2021-05-09T19:42:13.044Z</time>
      </trkpt>
      <trkpt lat="50.49835" lon="3.47879">
        <ele>16.905079</ele>
        <time>2021-05-09T19:42:27.260Z</time>
      </trkpt>
      <trkpt lat="50.49849" lon="3.47803">
        <ele>17.181265</ele>
        <time>2021-05-09T19:42:38.883Z</time>
      </trkpt>
      <trkpt lat="50.49874" lon="3.47645">
        <ele>17.93038</ele>
        <time>2021-05-09T19:43:03.539Z</time>
      </trkpt>
      <trkpt lat="50.49968" lon="3.47269">
        <ele>19.447248</ele>
        <time>2021-05-09T19:44:02.429Z</time>
      </trkpt>
      <trkpt lat="50.49982" lon="3.47188">
        <ele>19.331052</ele>
        <time>2021-05-09T19:44:12.680Z</time>
      </trkpt>
      <trkpt lat="50.49989" lon="3.47148">
        <ele>19.229355</ele>
        <time>2021-05-09T19:44:17.575Z</time>
      </trkpt>
      <trkpt lat="50.50008" lon="3.47058">
        <ele>18.994492</ele>
        <time>2021-05-09T19:44:28.737Z</time>
      </trkpt>
      <trkpt lat="50.50028" lon="3.46994">
        <ele>18.818597</ele>
        <time>2021-05-09T19:44:36.939Z</time>
      </trkpt>
      <trkpt lat="50.50064" lon="3.46894">
        <ele>18.762933</ele>
        <time>2021-05-09T19:44:50.484Z</time>
      </trkpt>
      <trkpt lat="50.50156" lon="3.46691">
        <ele>18.954669</ele>
        <time>2021-05-09T19:45:24.197Z</time>
      </trkpt>
      <trkpt lat="50.50193" lon="3.46613">
        <ele>19.290506</ele>
        <time>2021-05-09T19:45:38.390Z</time>
      </trkpt>
      <trkpt lat="50.50199" lon="3.46601">
        <ele>19.341029</ele>
        <time>2021-05-09T19:45:40.562Z</time>
      </trkpt>
      <trkpt lat="50.50237" lon="3.4654">
        <ele>19.632262</ele>
        <time>2021-05-09T19:45:53.027Z</time>
      </trkpt>
      <trkpt lat="50.5027" lon="3.46488">
        <ele>19.6691</ele>
        <time>2021-05-09T19:46:03.681Z</time>
      </trkpt>
      <trkpt lat="50.503" lon="3.46432">
        <ele>19.6691</ele>
        <time>2021-05-09T19:46:14.555Z</time>
      </trkpt>
      <trkpt lat="50.50313" lon="3.46411">
        <ele>19.6691</ele>
        <time>2021-05-09T19:46:18.752Z</time>
      </trkpt>
      <trkpt lat="50.50317" lon="3.46374">
        <ele>19.6691</ele>
        <time>2021-05-09T19:46:22.693Z</time>
      </trkpt>
      <trkpt lat="50.50325" lon="3.46307">
        <ele>19.6691</ele>
        <time>2021-05-09T19:46:29.466Z</time>
      </trkpt>
    </trkseg>
  </trk>
</gpx>